Time,TemperatureF,DewpointF,PressureIn,WindDirection,WindDirectionDegrees,WindSpeedMPH,WindSpeedGustMPH,Humidity,HourlyPrecipIn,Conditions,Clouds,dailyrainin,SoftwareType,DateUTC
2013-04-27 00:00:00,38.1,24.7,17.72,West,259,0.0,0.0,58,0.00,,FEW085,0.00,VWS V14.01,2013-04-27 04:00:00,
2013-04-27 00:01:00,38.1,24.7,17.72,West,259,0.0,0.0,58,0.00,,CLR,0.00,VWS V14.01,2013-04-27 04:01:00,
2013-04-27 00:02:00,38.1,24.7,17.72,West,259,0.0,0.0,58,0.00,,FEW085,0.00,VWS V14.01,2013-04-27 04:02:00,
2013-04-27 00:03:00,37.9,24.9,17.72,West,259,0.0,0.0,59,0.00,,FEW085,0.00,VWS V14.01,2013-04-27 04:03:00,
2013-04-27 00:04:00,37.9,24.9,17.72,West,259,0.0,0.0,59,0.00,,FEW085,0.00,VWS V14.01,2013-04-27 04:04:00,
2013-04-27 00:05:00,37.9,24.9,17.72,West,259,0.0,0.0,59,0.00,,FEW085,0.00,VWS V14.01,2013-04-27 04:05:00,
2013-04-27 00:06:00,37.9,24.9,17.72,West,259,0.0,0.0,59,0.00,,CLR,0.00,VWS V14.01,2013-04-27 04:06:00,
2013-04-27 00:07:00,37.9,24.9,17.72,West,259,0.0,0.0,59,0.00,,FEW085,0.00,VWS V14.01,2013-04-27 04:07:00,
2013-04-27 00:08:00,37.9,24.9,17.72,West,259,0.0,0.0,59,0.00,,FEW085,0.00,VWS V14.01,2013-04-27 04:08:00,
2013-04-27 00:09:00,37.8,24.7,17.72,West,259,0.0,0.0,59,0.00,,FEW085,0.00,VWS V14.01,2013-04-27 04:09:00,
2013-04-27 00:10:00,37.8,24.7,17.72,WNW,287,0.0,0.0,59,0.00,,FEW085,0.00,VWS V14.01,2013-04-27 04:10:00,
2013-04-27 00:11:00,37.8,24.7,17.72,WNW,287,0.0,0.0,59,0.00,,CLR,0.00,VWS V14.01,2013-04-27 04:11:00,
2013-04-27 00:12:00,37.8,24.7,17.72,WNW,287,0.0,0.0,59,0.00,,FEW085,0.00,VWS V14.01,2013-04-27 04:12:00,
2013-04-27 00:13:00,37.8,24.7,17.72,West,264,0.0,0.0,59,0.00,,FEW085,0.00,VWS V14.01,2013-04-27 04:13:00,
2013-04-27 00:14:00,37.8,24.7,17.72,West,265,0.0,0.0,59,0.00,,FEW085,0.00,VWS V14.01,2013-04-27 04:14:00,
2013-04-27 00:15:00,37.8,25.1,17.72,WSW,255,0.0,0.0,60,0.00,,FEW085,0.00,VWS V14.01,2013-04-27 04:15:00,
2013-04-27 00:16:00,37.6,25.0,17.72,WSW,254,0.0,0.0,60,0.00,,CLR,0.00,VWS V14.01,2013-04-27 04:16:00,
2013-04-27 00:17:00,37.6,25.0,17.72,WSW,254,0.0,0.0,60,0.00,,FEW085,0.00,VWS V14.01,2013-04-27 04:17:00,
2013-04-27 00:18:00,37.6,25.0,17.72,WSW,255,0.0,0.0,60,0.00,,FEW085,0.00,VWS V14.01,2013-04-27 04:18:00,
2013-04-27 00:19:00,37.6,25.0,17.72,WSW,254,0.0,0.0,60,0.00,,FEW085,0.00,VWS V14.01,2013-04-27 04:19:00,
2013-04-27 00:20:00,37.6,25.0,17.72,WSW,254,0.0,0.0,60,0.00,,FEW085,0.00,VWS V14.01,2013-04-27 04:20:00,
2013-04-27 00:21:00,37.6,25.4,17.72,WSW,255,0.0,0.0,61,0.00,,CLR,0.00,VWS V14.01,2013-04-27 04:21:00,
2013-04-27 00:22:00,37.6,25.4,17.72,WSW,254,0.0,0.0,61,0.00,,FEW085,0.00,VWS V14.01,2013-04-27 04:22:00,
2013-04-27 00:23:00,37.6,25.4,17.72,WSW,255,0.0,0.0,61,0.00,,FEW085,0.00,VWS V14.01,2013-04-27 04:23:00,
2013-04-27 00:24:00,37.4,25.2,17.72,WSW,254,0.0,0.0,61,0.00,,FEW085,0.00,VWS V14.01,2013-04-27 04:24:00,
2013-04-27 00:25:00,37.4,25.2,17.72,WSW,255,0.0,0.0,61,0.00,,FEW085,0.00,VWS V14.01,2013-04-27 04:25:00,
2013-04-27 00:26:00,37.4,25.2,17.72,WSW,254,0.0,0.0,61,0.00,,CLR,0.00,VWS V14.01,2013-04-27 04:26:00,
2013-04-27 00:27:00,37.4,25.6,17.72,WSW,254,0.0,0.0,62,0.00,,FEW085,0.00,VWS V14.01,2013-04-27 04:27:00,
2013-04-27 00:28:00,37.4,25.6,17.72,WSW,254,0.0,0.0,62,0.00,,FEW085,0.00,VWS V14.01,2013-04-27 04:28:00,
2013-04-27 00:29:00,37.2,25.4,17.72,WSW,254,0.0,0.0,62,0.00,,FEW085,0.00,VWS V14.01,2013-04-27 04:29:00,
2013-04-27 00:30:00,37.2,25.4,17.72,WSW,254,0.0,0.0,62,0.00,,FEW085,0.00,VWS V14.01,2013-04-27 04:30:00,
2013-04-27 00:31:00,37.2,25.4,17.72,WSW,254,0.0,0.0,62,0.00,,CLR,0.00,VWS V14.01,2013-04-27 04:31:00,
2013-04-27 00:32:00,37.2,25.4,17.72,WSW,255,0.0,0.0,62,0.00,,FEW085,0.00,VWS V14.01,2013-04-27 04:32:00,
2013-04-27 00:33:00,37.0,25.6,17.72,WSW,254,0.0,0.0,63,0.00,,FEW085,0.00,VWS V14.01,2013-04-27 04:33:00,
2013-04-27 00:34:00,37.0,25.6,17.72,WSW,255,0.0,0.0,63,0.00,,FEW085,0.00,VWS V14.01,2013-04-27 04:34:00,
2013-04-27 00:35:00,37.0,25.2,17.72,WSW,254,0.0,0.0,62,0.00,,FEW085,0.00,VWS V14.01,2013-04-27 04:35:00,
2013-04-27 00:36:00,37.0,25.2,17.72,WSW,255,0.0,0.0,62,0.00,,CLR,0.00,VWS V14.01,2013-04-27 04:36:00,
2013-04-27 00:37:00,37.0,25.2,17.72,WSW,254,0.0,0.0,62,0.00,,FEW085,0.00,VWS V14.01,2013-04-27 04:37:00,
2013-04-27 00:38:00,37.0,25.6,17.72,WSW,254,0.0,0.0,63,0.00,,FEW085,0.00,VWS V14.01,2013-04-27 04:38:00,
2013-04-27 00:39:00,37.0,25.6,17.72,WSW,254,0.0,0.0,63,0.00,,FEW085,0.00,VWS V14.01,2013-04-27 04:39:00,
2013-04-27 00:40:00,37.0,25.6,17.72,WSW,254,0.0,0.0,63,0.00,,FEW085,0.00,VWS V14.01,2013-04-27 04:40:00,
2013-04-27 00:41:00,37.0,25.6,17.72,WSW,254,0.0,0.0,63,0.00,,CLR,0.00,VWS V14.01,2013-04-27 04:41:00,
2013-04-27 00:42:00,37.0,25.6,17.72,WSW,254,0.0,0.0,63,0.00,,FEW085,0.00,VWS V14.01,2013-04-27 04:42:00,
2013-04-27 00:43:00,37.0,26.0,17.72,WSW,254,0.0,0.0,64,0.00,,FEW085,0.00,VWS V14.01,2013-04-27 04:43:00,
2013-04-27 00:44:00,37.0,26.0,17.72,WSW,254,0.0,0.0,64,0.00,,FEW085,0.00,VWS V14.01,2013-04-27 04:44:00,
2013-04-27 00:45:00,37.0,26.0,17.72,WSW,254,0.0,0.0,64,0.00,,FEW085,0.00,VWS V14.01,2013-04-27 04:45:00,
2013-04-27 00:46:00,37.0,26.0,17.72,WSW,254,0.0,0.0,64,0.00,,CLR,0.00,VWS V14.01,2013-04-27 04:46:00,
2013-04-27 00:47:00,37.0,26.0,17.72,WSW,255,0.0,0.0,64,0.00,,FEW085,0.00,VWS V14.01,2013-04-27 04:47:00,
2013-04-27 00:48:00,37.0,26.4,17.72,WSW,254,0.0,0.0,65,0.00,,FEW085,0.00,VWS V14.01,2013-04-27 04:48:00,
2013-04-27 00:49:00,37.2,26.5,17.72,WSW,255,0.0,0.0,65,0.00,,FEW085,0.00,VWS V14.01,2013-04-27 04:49:00,
2013-04-27 00:50:00,37.2,26.5,17.72,WSW,254,0.0,0.0,65,0.00,,FEW085,0.00,VWS V14.01,2013-04-27 04:50:00,
2013-04-27 00:51:00,37.2,26.5,17.72,WSW,254,0.0,0.0,65,0.00,,CLR,0.00,VWS V14.01,2013-04-27 04:51:00,
2013-04-27 00:52:00,37.0,26.4,17.72,WSW,254,0.0,0.0,65,0.00,,FEW085,0.00,VWS V14.01,2013-04-27 04:52:00,
2013-04-27 00:53:00,37.0,26.8,17.72,WSW,254,0.0,0.0,66,0.00,,FEW085,0.00,VWS V14.01,2013-04-27 04:53:00,
2013-04-27 00:54:00,37.0,26.8,17.72,WSW,255,0.0,0.0,66,0.00,,FEW085,0.00,VWS V14.01,2013-04-27 04:54:00,
2013-04-27 00:55:00,37.0,26.8,17.72,WSW,254,0.0,0.0,66,0.00,,FEW085,0.00,VWS V14.01,2013-04-27 04:55:00,
2013-04-27 00:56:00,37.0,26.8,17.72,WSW,254,0.0,0.0,66,0.00,,CLR,0.00,VWS V14.01,2013-04-27 04:56:00,
2013-04-27 00:57:00,37.0,26.8,17.72,WSW,254,0.0,0.0,66,0.00,,FEW085,0.00,VWS V14.01,2013-04-27 04:57:00,
2013-04-27 00:58:00,37.0,26.8,17.72,WSW,255,0.0,0.0,66,0.00,,FEW085,0.00,VWS V14.01,2013-04-27 04:58:00,
2013-04-27 00:59:00,37.0,26.8,17.72,WSW,255,0.0,0.0,66,0.00,,FEW085,0.00,VWS V14.01,2013-04-27 04:59:00,
2013-04-27 01:00:00,37.0,26.8,17.72,WSW,254,0.0,0.0,66,0.00,,FEW085,0.00,VWS V14.01,2013-04-27 05:00:00,
2013-04-27 01:01:00,37.0,26.8,17.72,WSW,255,0.0,0.0,66,0.00,,CLR,0.00,VWS V14.01,2013-04-27 05:01:00,
2013-04-27 01:02:00,37.0,27.1,17.72,WSW,254,0.0,0.0,67,0.00,,FEW085,0.00,VWS V14.01,2013-04-27 05:02:00,
2013-04-27 01:03:00,37.0,27.1,17.72,WSW,254,0.0,0.0,67,0.00,,FEW085,0.00,VWS V14.01,2013-04-27 05:03:00,
2013-04-27 01:04:00,36.9,26.9,17.72,WSW,255,0.0,0.0,67,0.00,,FEW085,0.00,VWS V14.01,2013-04-27 05:04:00,
2013-04-27 01:05:00,36.9,26.9,17.72,WSW,254,0.0,0.0,67,0.00,,FEW085,0.00,VWS V14.01,2013-04-27 05:05:00,
2013-04-27 01:06:00,36.9,26.9,17.72,WSW,254,0.0,0.0,67,0.00,,CLR,0.00,VWS V14.01,2013-04-27 05:06:00,
2013-04-27 01:07:00,36.9,26.9,17.72,WSW,255,0.0,0.0,67,0.00,,FEW085,0.00,VWS V14.01,2013-04-27 05:07:00,
2013-04-27 01:08:00,36.9,26.9,17.72,WSW,254,0.0,0.0,67,0.00,,FEW085,0.00,VWS V14.01,2013-04-27 05:08:00,
2013-04-27 01:09:00,36.9,26.9,17.72,WSW,254,0.0,0.0,67,0.00,,FEW085,0.00,VWS V14.01,2013-04-27 05:09:00,
2013-04-27 01:10:00,36.7,26.8,17.72,WSW,254,0.0,0.0,67,0.00,,FEW085,0.00,VWS V14.01,2013-04-27 05:10:00,
2013-04-27 01:11:00,36.7,26.8,17.72,WSW,254,0.0,0.0,67,0.00,,CLR,0.00,VWS V14.01,2013-04-27 05:11:00,
2013-04-27 01:12:00,36.7,26.8,17.72,WSW,254,0.0,0.0,67,0.00,,FEW085,0.00,VWS V14.01,2013-04-27 05:12:00,
2013-04-27 01:13:00,36.7,27.1,17.72,WSW,254,0.0,0.0,68,0.00,,FEW085,0.00,VWS V14.01,2013-04-27 05:13:00,
2013-04-27 01:14:00,36.7,27.1,17.72,WSW,254,0.0,0.0,68,0.00,,FEW085,0.00,VWS V14.01,2013-04-27 05:14:00,
2013-04-27 01:15:00,36.5,27.0,17.72,WSW,254,0.0,0.0,68,0.00,,FEW085,0.00,VWS V14.01,2013-04-27 05:15:00,
2013-04-27 01:16:00,36.5,27.0,17.72,WSW,255,0.0,0.0,68,0.00,,CLR,0.00,VWS V14.01,2013-04-27 05:16:00,
2013-04-27 01:17:00,36.5,27.0,17.72,WSW,255,0.0,0.0,68,0.00,,FEW085,0.00,VWS V14.01,2013-04-27 05:17:00,
2013-04-27 01:18:00,36.5,27.0,17.72,WSW,254,0.0,0.0,68,0.00,,FEW085,0.00,VWS V14.01,2013-04-27 05:18:00,
2013-04-27 01:19:00,36.3,26.8,17.72,WSW,254,0.0,0.0,68,0.00,,FEW085,0.00,VWS V14.01,2013-04-27 05:19:00,
2013-04-27 01:20:00,36.3,26.8,17.72,WSW,254,0.0,0.0,68,0.00,,FEW085,0.00,VWS V14.01,2013-04-27 05:20:00,
2013-04-27 01:21:00,36.3,26.8,17.72,WSW,255,0.0,0.0,68,0.00,,CLR,0.00,VWS V14.01,2013-04-27 05:21:00,
2013-04-27 01:22:00,36.3,26.8,17.72,WSW,254,0.0,0.0,68,0.00,,FEW085,0.00,VWS V14.01,2013-04-27 05:22:00,
2013-04-27 01:23:00,36.3,26.8,17.72,WSW,254,0.0,0.0,68,0.00,,FEW085,0.00,VWS V14.01,2013-04-27 05:23:00,
2013-04-27 01:24:00,36.3,26.8,17.72,WSW,254,0.0,0.0,68,0.00,,FEW085,0.00,VWS V14.01,2013-04-27 05:24:00,
2013-04-27 01:25:00,36.3,26.8,17.72,WSW,254,0.0,0.0,68,0.00,,FEW085,0.00,VWS V14.01,2013-04-27 05:25:00,
2013-04-27 01:26:00,36.3,26.8,17.72,WSW,254,0.0,0.0,68,0.00,,CLR,0.00,VWS V14.01,2013-04-27 05:26:00,
2013-04-27 01:27:00,36.3,26.8,17.72,WSW,254,0.0,0.0,68,0.00,,FEW085,0.00,VWS V14.01,2013-04-27 05:27:00,
2013-04-27 01:28:00,36.3,26.8,17.72,WSW,254,0.0,0.0,68,0.00,,FEW085,0.00,VWS V14.01,2013-04-27 05:28:00,
2013-04-27 01:29:00,36.3,27.1,17.72,WSW,254,0.0,0.0,69,0.00,,FEW085,0.00,VWS V14.01,2013-04-27 05:29:00,
2013-04-27 01:30:00,36.3,27.1,17.72,WSW,255,0.0,0.0,69,0.00,,FEW085,0.00,VWS V14.01,2013-04-27 05:30:00,
2013-04-27 01:31:00,36.3,27.1,17.72,WSW,254,0.0,0.0,69,0.00,,CLR,0.00,VWS V14.01,2013-04-27 05:31:00,
2013-04-27 01:32:00,36.3,27.1,17.72,WSW,255,0.0,0.0,69,0.00,,FEW085,0.00,VWS V14.01,2013-04-27 05:32:00,
2013-04-27 01:33:00,36.3,27.1,17.72,WSW,254,0.0,0.0,69,0.00,,FEW085,0.00,VWS V14.01,2013-04-27 05:33:00,
2013-04-27 01:34:00,36.3,27.1,17.72,WSW,254,0.0,0.0,69,0.00,,FEW085,0.00,VWS V14.01,2013-04-27 05:34:00,
2013-04-27 01:35:00,36.3,27.5,17.72,WSW,254,0.0,0.0,70,0.00,,FEW085,0.00,VWS V14.01,2013-04-27 05:35:00,
2013-04-27 01:36:00,36.3,27.5,17.72,WSW,254,0.0,0.0,70,0.00,,CLR,0.00,VWS V14.01,2013-04-27 05:36:00,
2013-04-27 01:37:00,36.5,27.7,17.72,WSW,254,0.0,0.0,70,0.00,,FEW085,0.00,VWS V14.01,2013-04-27 05:37:00,
2013-04-27 01:38:00,36.5,28.0,17.72,WSW,255,0.0,0.0,71,0.00,,FEW085,0.00,VWS V14.01,2013-04-27 05:38:00,
2013-04-27 01:39:00,36.5,28.0,17.72,WSW,254,0.0,0.0,71,0.00,,FEW085,0.00,VWS V14.01,2013-04-27 05:39:00,
2013-04-27 01:40:00,36.7,28.2,17.72,WSW,255,0.0,0.0,71,0.00,,FEW085,0.00,VWS V14.01,2013-04-27 05:40:00,
2013-04-27 01:41:00,36.7,28.2,17.72,WSW,254,0.0,0.0,71,0.00,,CLR,0.00,VWS V14.01,2013-04-27 05:41:00,
2013-04-27 01:42:00,36.7,28.2,17.72,WSW,254,0.0,0.0,71,0.00,,FEW085,0.00,VWS V14.01,2013-04-27 05:42:00,
2013-04-27 01:43:00,36.7,28.2,17.72,WSW,254,0.0,0.0,71,0.00,,FEW085,0.00,VWS V14.01,2013-04-27 05:43:00,
2013-04-27 01:44:00,36.7,28.5,17.72,WSW,254,0.0,0.0,72,0.00,,FEW085,0.00,VWS V14.01,2013-04-27 05:44:00,
2013-04-27 01:45:00,36.7,28.5,17.72,WSW,255,0.0,0.0,72,0.00,,FEW085,0.00,VWS V14.01,2013-04-27 05:45:00,
2013-04-27 01:46:00,36.7,28.5,17.72,WSW,254,0.0,0.0,72,0.00,,CLR,0.00,VWS V14.01,2013-04-27 05:46:00,
2013-04-27 01:47:00,36.7,28.5,17.72,WSW,254,0.0,0.0,72,0.00,,FEW085,0.00,VWS V14.01,2013-04-27 05:47:00,
2013-04-27 01:48:00,36.7,28.5,17.72,WSW,255,0.0,0.0,72,0.00,,FEW085,0.00,VWS V14.01,2013-04-27 05:48:00,
2013-04-27 01:49:00,36.7,28.5,17.72,WSW,254,0.0,0.0,72,0.00,,FEW085,0.00,VWS V14.01,2013-04-27 05:49:00,
2013-04-27 01:50:00,36.7,28.5,17.72,WSW,254,0.0,0.0,72,0.00,,FEW085,0.00,VWS V14.01,2013-04-27 05:50:00,
2013-04-27 01:51:00,36.7,28.5,17.72,WSW,254,0.0,0.0,72,0.00,,CLR,0.00,VWS V14.01,2013-04-27 05:51:00,
2013-04-27 01:52:00,36.7,28.5,17.72,WSW,254,0.0,0.0,72,0.00,,FEW085,0.00,VWS V14.01,2013-04-27 05:52:00,
2013-04-27 01:53:00,36.7,28.5,17.72,WSW,254,0.0,0.0,72,0.00,,FEW085,0.00,VWS V14.01,2013-04-27 05:53:00,
2013-04-27 01:54:00,36.7,28.5,17.72,WSW,254,0.0,0.0,72,0.00,,FEW085,0.00,VWS V14.01,2013-04-27 05:54:00,
2013-04-27 01:55:00,36.7,28.5,17.72,WSW,254,0.0,0.0,72,0.00,,FEW085,0.00,VWS V14.01,2013-04-27 05:55:00,
2013-04-27 01:56:00,36.5,28.4,17.72,WSW,254,0.0,0.0,72,0.00,,CLR,0.00,VWS V14.01,2013-04-27 05:56:00,
2013-04-27 01:57:00,36.5,28.4,17.72,WSW,254,0.0,0.0,72,0.00,,FEW085,0.00,VWS V14.01,2013-04-27 05:57:00,
2013-04-27 01:58:00,36.5,28.4,17.72,WSW,254,0.0,0.0,72,0.00,,FEW085,0.00,VWS V14.01,2013-04-27 05:58:00,
2013-04-27 01:59:00,36.5,28.4,17.72,WSW,254,0.0,0.0,72,0.00,,FEW085,0.00,VWS V14.01,2013-04-27 05:59:00,
2013-04-27 02:00:00,36.3,28.2,17.72,WSW,254,0.0,0.0,72,0.00,,FEW085,0.00,VWS V14.01,2013-04-27 06:00:00,
2013-04-27 02:01:00,36.3,28.2,17.72,WSW,254,0.0,0.0,72,0.00,,CLR,0.00,VWS V14.01,2013-04-27 06:01:00,
2013-04-27 02:02:00,36.3,28.2,17.72,WSW,254,0.0,0.0,72,0.00,,FEW085,0.00,VWS V14.01,2013-04-27 06:02:00,
2013-04-27 02:03:00,36.1,28.0,17.72,WSW,255,0.0,0.0,72,0.00,,FEW085,0.00,VWS V14.01,2013-04-27 06:03:00,
2013-04-27 02:04:00,36.1,28.0,17.72,WSW,254,0.0,0.0,72,0.00,,FEW085,0.00,VWS V14.01,2013-04-27 06:04:00,
2013-04-27 02:05:00,36.0,27.8,17.72,WSW,254,0.0,0.0,72,0.00,,FEW085,0.00,VWS V14.01,2013-04-27 06:05:00,
2013-04-27 02:06:00,36.0,27.8,17.72,WSW,254,0.0,0.0,72,0.00,,CLR,0.00,VWS V14.01,2013-04-27 06:06:00,
2013-04-27 02:07:00,35.8,27.6,17.72,WSW,254,0.0,0.0,72,0.00,,FEW085,0.00,VWS V14.01,2013-04-27 06:07:00,
2013-04-27 02:08:00,35.8,27.6,17.72,WSW,254,0.0,0.0,72,0.00,,FEW085,0.00,VWS V14.01,2013-04-27 06:08:00,
2013-04-27 02:09:00,35.8,27.6,17.72,WSW,254,0.0,0.0,72,0.00,,FEW085,0.00,VWS V14.01,2013-04-27 06:09:00,
2013-04-27 02:10:00,35.6,27.5,17.72,WSW,254,0.0,0.0,72,0.00,,FEW085,0.00,VWS V14.01,2013-04-27 06:10:00,
2013-04-27 02:11:00,35.6,27.5,17.72,WSW,254,0.0,0.0,72,0.00,,CLR,0.00,VWS V14.01,2013-04-27 06:11:00,
2013-04-27 02:12:00,35.4,27.6,17.72,WSW,254,0.0,0.0,73,0.00,,FEW085,0.00,VWS V14.01,2013-04-27 06:12:00,
2013-04-27 02:13:00,35.4,27.6,17.72,WSW,254,0.0,0.0,73,0.00,,FEW085,0.00,VWS V14.01,2013-04-27 06:13:00,
2013-04-27 02:14:00,35.4,27.6,17.72,WSW,254,0.0,0.0,73,0.00,,FEW085,0.00,VWS V14.01,2013-04-27 06:14:00,
2013-04-27 02:15:00,35.4,27.6,17.72,WSW,254,0.0,0.0,73,0.00,,FEW085,0.00,VWS V14.01,2013-04-27 06:15:00,
2013-04-27 02:16:00,35.2,27.5,17.72,WSW,254,0.0,0.0,73,0.00,,CLR,0.00,VWS V14.01,2013-04-27 06:16:00,
2013-04-27 02:17:00,35.2,27.5,17.72,WSW,254,0.0,0.0,73,0.00,,FEW085,0.00,VWS V14.01,2013-04-27 06:17:00,
2013-04-27 02:18:00,35.1,27.3,17.72,WSW,254,0.0,0.0,73,0.00,,FEW085,0.00,VWS V14.01,2013-04-27 06:18:00,
2013-04-27 02:19:00,35.1,27.3,17.72,WSW,254,0.0,0.0,73,0.00,,FEW085,0.00,VWS V14.01,2013-04-27 06:19:00,
2013-04-27 02:20:00,35.1,27.3,17.72,WSW,254,0.0,0.0,73,0.00,,FEW085,0.00,VWS V14.01,2013-04-27 06:20:00,
2013-04-27 02:21:00,35.1,27.3,17.72,WSW,254,0.0,0.0,73,0.00,,CLR,0.00,VWS V14.01,2013-04-27 06:21:00,
2013-04-27 02:22:00,35.1,27.3,17.72,WSW,254,0.0,0.0,73,0.00,,FEW085,0.00,VWS V14.01,2013-04-27 06:22:00,
2013-04-27 02:23:00,35.1,27.3,17.72,WSW,254,0.0,0.0,73,0.00,,FEW085,0.00,VWS V14.01,2013-04-27 06:23:00,
2013-04-27 02:24:00,34.9,27.1,17.72,WSW,254,0.0,0.0,73,0.00,,FEW085,0.00,VWS V14.01,2013-04-27 06:24:00,
2013-04-27 02:25:00,34.9,27.1,17.72,WSW,254,0.0,0.0,73,0.00,,FEW085,0.00,VWS V14.01,2013-04-27 06:25:00,
2013-04-27 02:26:00,34.9,27.1,17.72,WSW,254,0.0,0.0,73,0.00,,CLR,0.00,VWS V14.01,2013-04-27 06:26:00,
2013-04-27 02:27:00,34.9,27.1,17.72,WSW,254,0.0,0.0,73,0.00,,FEW085,0.00,VWS V14.01,2013-04-27 06:27:00,
2013-04-27 02:28:00,34.9,27.1,17.72,WSW,254,0.0,0.0,73,0.00,,FEW085,0.00,VWS V14.01,2013-04-27 06:28:00,
2013-04-27 02:29:00,34.7,26.9,17.72,WSW,254,0.0,0.0,73,0.00,,FEW085,0.00,VWS V14.01,2013-04-27 06:29:00,
2013-04-27 02:30:00,34.7,26.9,17.72,WSW,254,0.0,0.0,73,0.00,,FEW085,0.00,VWS V14.01,2013-04-27 06:30:00,
2013-04-27 02:31:00,34.7,27.0,17.72,WSW,254,0.0,0.0,73,0.00,,CLR,0.00,VWS V14.01,2013-04-27 06:31:00,
2013-04-27 02:32:00,34.7,26.9,17.72,WSW,254,0.0,0.0,73,0.00,,FEW085,0.00,VWS V14.01,2013-04-27 06:32:00,
2013-04-27 02:33:00,34.5,26.8,17.72,WSW,254,0.0,0.0,73,0.00,,FEW085,0.00,VWS V14.01,2013-04-27 06:33:00,
2013-04-27 02:34:00,34.5,26.8,17.72,WSW,254,0.0,0.0,73,0.00,,FEW085,0.00,VWS V14.01,2013-04-27 06:34:00,
2013-04-27 02:35:00,34.5,26.8,17.72,WSW,254,0.0,0.0,73,0.00,,FEW085,0.00,VWS V14.01,2013-04-27 06:35:00,
2013-04-27 02:36:00,34.5,26.8,17.72,WSW,254,0.0,0.0,73,0.00,,CLR,0.00,VWS V14.01,2013-04-27 06:36:00,
2013-04-27 02:37:00,34.5,26.8,17.72,WSW,254,0.0,0.0,73,0.00,,FEW085,0.00,VWS V14.01,2013-04-27 06:37:00,
2013-04-27 02:38:00,34.3,26.6,17.72,WSW,254,0.0,0.0,73,0.00,,FEW085,0.00,VWS V14.01,2013-04-27 06:38:00,
2013-04-27 02:39:00,34.3,26.6,17.72,WSW,254,0.0,0.0,73,0.00,,FEW085,0.00,VWS V14.01,2013-04-27 06:39:00,
2013-04-27 02:40:00,34.3,26.6,17.72,WSW,254,0.0,0.0,73,0.00,,FEW085,0.00,VWS V14.01,2013-04-27 06:40:00,
2013-04-27 02:41:00,34.3,26.6,17.72,WSW,254,0.0,0.0,73,0.00,,CLR,0.00,VWS V14.01,2013-04-27 06:41:00,
2013-04-27 02:42:00,34.3,26.6,17.72,WSW,254,0.0,0.0,73,0.00,,FEW085,0.00,VWS V14.01,2013-04-27 06:42:00,
2013-04-27 02:43:00,34.3,26.6,17.72,WSW,255,0.0,0.0,73,0.00,,FEW085,0.00,VWS V14.01,2013-04-27 06:43:00,
2013-04-27 02:44:00,34.3,26.6,17.72,WSW,254,0.0,0.0,73,0.00,,FEW085,0.00,VWS V14.01,2013-04-27 06:44:00,
2013-04-27 02:45:00,34.3,26.6,17.72,WSW,254,0.0,0.0,73,0.00,,FEW085,0.00,VWS V14.01,2013-04-27 06:45:00,
2013-04-27 02:46:00,34.3,26.6,17.72,WSW,254,0.0,0.0,73,0.00,,CLR,0.00,VWS V14.01,2013-04-27 06:46:00,
2013-04-27 02:47:00,34.3,26.6,17.72,WSW,254,0.0,0.0,73,0.00,,FEW085,0.00,VWS V14.01,2013-04-27 06:47:00,
2013-04-27 02:48:00,34.3,26.6,17.72,WSW,254,0.0,0.0,73,0.00,,FEW085,0.00,VWS V14.01,2013-04-27 06:48:00,
2013-04-27 02:49:00,34.3,26.9,17.72,WSW,254,0.0,0.0,74,0.00,,FEW085,0.00,VWS V14.01,2013-04-27 06:49:00,
2013-04-27 02:50:00,34.3,26.9,17.72,WSW,255,0.0,0.0,74,0.00,,FEW085,0.00,VWS V14.01,2013-04-27 06:50:00,
2013-04-27 02:51:00,34.3,26.9,17.72,WSW,255,0.0,0.0,74,0.00,,CLR,0.00,VWS V14.01,2013-04-27 06:51:00,
2013-04-27 02:52:00,34.3,26.9,17.72,WSW,255,0.0,0.0,74,0.00,,FEW085,0.00,VWS V14.01,2013-04-27 06:52:00,
2013-04-27 02:53:00,34.3,26.9,17.72,WSW,254,0.0,0.0,74,0.00,,FEW085,0.00,VWS V14.01,2013-04-27 06:53:00,
2013-04-27 02:54:00,34.3,27.2,17.72,WSW,254,0.0,0.0,75,0.00,,FEW085,0.00,VWS V14.01,2013-04-27 06:54:00,
2013-04-27 02:55:00,34.3,27.2,17.72,WSW,254,0.0,0.0,75,0.00,,FEW085,0.00,VWS V14.01,2013-04-27 06:55:00,
2013-04-27 02:56:00,34.3,27.2,17.72,WSW,254,0.0,0.0,75,0.00,,CLR,0.00,VWS V14.01,2013-04-27 06:56:00,
2013-04-27 02:57:00,34.5,27.4,17.72,WSW,254,0.0,0.0,75,0.00,,FEW085,0.00,VWS V14.01,2013-04-27 06:57:00,
2013-04-27 02:58:00,34.5,27.4,17.72,WSW,254,0.0,0.0,75,0.00,,FEW085,0.00,VWS V14.01,2013-04-27 06:58:00,
2013-04-27 02:59:00,34.5,27.4,17.72,WSW,255,0.0,0.0,75,0.00,,FEW085,0.00,VWS V14.01,2013-04-27 06:59:00,
2013-04-27 03:00:00,34.5,27.4,17.72,WSW,254,0.0,0.0,75,0.00,,FEW085,0.00,VWS V14.01,2013-04-27 07:00:00,
2013-04-27 03:01:00,34.5,27.4,17.72,WSW,254,0.0,0.0,75,0.00,,CLR,0.00,VWS V14.01,2013-04-27 07:01:00,
2013-04-27 03:02:00,34.5,27.4,17.72,WSW,254,0.0,0.0,75,0.00,,FEW085,0.00,VWS V14.01,2013-04-27 07:02:00,
2013-04-27 03:03:00,34.7,27.9,17.72,WSW,254,0.0,0.0,76,0.00,,FEW085,0.00,VWS V14.01,2013-04-27 07:03:00,
2013-04-27 03:04:00,34.7,27.9,17.72,WSW,254,0.0,0.0,76,0.00,,FEW085,0.00,VWS V14.01,2013-04-27 07:04:00,
2013-04-27 03:05:00,34.7,27.9,17.72,WSW,255,0.0,0.0,76,0.00,,FEW085,0.00,VWS V14.01,2013-04-27 07:05:00,
2013-04-27 03:06:00,34.7,27.9,17.72,WSW,254,0.0,0.0,76,0.00,,CLR,0.00,VWS V14.01,2013-04-27 07:06:00,
2013-04-27 03:07:00,34.7,27.9,17.72,WSW,254,0.0,0.0,76,0.00,,FEW085,0.00,VWS V14.01,2013-04-27 07:07:00,
2013-04-27 03:08:00,34.9,28.1,17.72,WSW,254,0.0,0.0,76,0.00,,FEW085,0.00,VWS V14.01,2013-04-27 07:08:00,
2013-04-27 03:09:00,34.9,28.1,17.72,WSW,254,0.0,0.0,76,0.00,,FEW085,0.00,VWS V14.01,2013-04-27 07:09:00,
2013-04-27 03:10:00,34.9,28.1,17.72,WSW,254,0.0,0.0,76,0.00,,FEW085,0.00,VWS V14.01,2013-04-27 07:10:00,
2013-04-27 03:11:00,34.9,28.1,17.72,WSW,254,0.0,0.0,76,0.00,,CLR,0.00,VWS V14.01,2013-04-27 07:11:00,
2013-04-27 03:12:00,34.9,28.1,17.72,WSW,255,0.0,0.0,76,0.00,,FEW085,0.00,VWS V14.01,2013-04-27 07:12:00,
2013-04-27 03:13:00,34.9,28.1,17.72,WSW,255,0.0,0.0,76,0.00,,FEW085,0.00,VWS V14.01,2013-04-27 07:13:00,
2013-04-27 03:14:00,34.9,28.1,17.72,WSW,255,0.0,0.0,76,0.00,,FEW085,0.00,VWS V14.01,2013-04-27 07:14:00,
2013-04-27 03:15:00,34.9,28.1,17.72,WSW,255,0.0,0.0,76,0.00,,FEW085,0.00,VWS V14.01,2013-04-27 07:15:00,
2013-04-27 03:16:00,34.9,28.1,17.72,WSW,254,0.0,0.0,76,0.00,,CLR,0.00,VWS V14.01,2013-04-27 07:16:00,
2013-04-27 03:17:00,34.9,28.1,17.72,WSW,254,0.0,0.0,76,0.00,,FEW085,0.00,VWS V14.01,2013-04-27 07:17:00,
2013-04-27 03:18:00,34.9,28.1,17.72,WSW,254,0.0,0.0,76,0.00,,FEW085,0.00,VWS V14.01,2013-04-27 07:18:00,
2013-04-27 03:19:00,34.9,28.4,17.72,WSW,254,0.0,0.0,77,0.00,,FEW085,0.00,VWS V14.01,2013-04-27 07:19:00,
2013-04-27 03:20:00,34.9,28.4,17.72,WSW,255,0.0,0.0,77,0.00,,FEW085,0.00,VWS V14.01,2013-04-27 07:20:00,
2013-04-27 03:21:00,34.9,28.4,17.72,WSW,254,0.0,0.0,77,0.00,,CLR,0.00,VWS V14.01,2013-04-27 07:21:00,
2013-04-27 03:22:00,34.9,28.4,17.72,WSW,255,0.0,0.0,77,0.00,,FEW085,0.00,VWS V14.01,2013-04-27 07:22:00,
2013-04-27 03:23:00,34.9,28.4,17.72,WSW,254,0.0,0.0,77,0.00,,FEW085,0.00,VWS V14.01,2013-04-27 07:23:00,
2013-04-27 03:24:00,34.9,28.4,17.72,WSW,254,0.0,0.0,77,0.00,,FEW085,0.00,VWS V14.01,2013-04-27 07:24:00,
2013-04-27 03:25:00,34.9,28.4,17.72,WSW,254,0.0,0.0,77,0.00,,FEW085,0.00,VWS V14.01,2013-04-27 07:25:00,
2013-04-27 03:26:00,34.9,28.4,17.72,WSW,254,0.0,0.0,77,0.00,,CLR,0.00,VWS V14.01,2013-04-27 07:26:00,
2013-04-27 03:27:00,34.9,28.4,17.72,WSW,254,0.0,0.0,77,0.00,,FEW085,0.00,VWS V14.01,2013-04-27 07:27:00,
2013-04-27 03:28:00,34.9,28.4,17.72,WSW,254,0.0,0.0,77,0.00,,FEW085,0.00,VWS V14.01,2013-04-27 07:28:00,
2013-04-27 03:29:00,34.9,28.4,17.72,WSW,254,0.0,0.0,77,0.00,,FEW085,0.00,VWS V14.01,2013-04-27 07:29:00,
2013-04-27 03:30:00,34.9,28.4,17.72,WSW,254,0.0,0.0,77,0.00,,FEW085,0.00,VWS V14.01,2013-04-27 07:30:00,
2013-04-27 03:31:00,34.9,28.4,17.72,WSW,254,0.0,0.0,77,0.00,,CLR,0.00,VWS V14.01,2013-04-27 07:31:00,
2013-04-27 03:32:00,34.9,28.4,17.72,WSW,255,0.0,0.0,77,0.00,,FEW085,0.00,VWS V14.01,2013-04-27 07:32:00,
2013-04-27 03:33:00,34.9,28.4,17.72,WSW,255,0.0,0.0,77,0.00,,FEW085,0.00,VWS V14.01,2013-04-27 07:33:00,
2013-04-27 03:34:00,34.9,28.4,17.72,WSW,254,0.0,0.0,77,0.00,,FEW085,0.00,VWS V14.01,2013-04-27 07:34:00,
2013-04-27 03:35:00,34.9,28.4,17.72,WSW,254,0.0,0.0,77,0.00,,FEW085,0.00,VWS V14.01,2013-04-27 07:35:00,
2013-04-27 03:36:00,34.9,28.4,17.72,WSW,254,0.0,0.0,77,0.00,,CLR,0.00,VWS V14.01,2013-04-27 07:36:00,
2013-04-27 03:37:00,34.9,28.7,17.72,WSW,254,0.0,0.0,78,0.00,,FEW085,0.00,VWS V14.01,2013-04-27 07:37:00,
2013-04-27 03:38:00,34.9,28.7,17.72,WSW,254,0.0,0.0,78,0.00,,FEW085,0.00,VWS V14.01,2013-04-27 07:38:00,
2013-04-27 03:39:00,34.9,28.7,17.72,WSW,254,0.0,0.0,78,0.00,,FEW085,0.00,VWS V14.01,2013-04-27 07:39:00,
2013-04-27 03:40:00,34.9,28.7,17.72,WSW,254,0.0,0.0,78,0.00,,FEW085,0.00,VWS V14.01,2013-04-27 07:40:00,
2013-04-27 03:41:00,34.9,28.7,17.72,WSW,254,0.0,0.0,78,0.00,,CLR,0.00,VWS V14.01,2013-04-27 07:41:00,
2013-04-27 03:42:00,34.9,28.7,17.72,WSW,254,0.0,0.0,78,0.00,,FEW085,0.00,VWS V14.01,2013-04-27 07:42:00,
2013-04-27 03:43:00,34.9,28.7,17.72,WSW,255,0.0,0.0,78,0.00,,FEW085,0.00,VWS V14.01,2013-04-27 07:43:00,
2013-04-27 03:44:00,34.9,28.7,17.72,WSW,254,0.0,0.0,78,0.00,,FEW085,0.00,VWS V14.01,2013-04-27 07:44:00,
2013-04-27 03:45:00,34.9,28.7,17.72,WSW,255,0.0,0.0,78,0.00,,FEW085,0.00,VWS V14.01,2013-04-27 07:45:00,
2013-04-27 03:46:00,34.9,28.7,17.72,WSW,255,0.0,0.0,78,0.00,,CLR,0.00,VWS V14.01,2013-04-27 07:46:00,
2013-04-27 03:47:00,34.7,28.6,17.72,WSW,255,0.0,0.0,78,0.00,,FEW085,0.00,VWS V14.01,2013-04-27 07:47:00,
2013-04-27 03:48:00,34.7,28.6,17.72,WSW,254,0.0,0.0,78,0.00,,FEW085,0.00,VWS V14.01,2013-04-27 07:48:00,
2013-04-27 03:49:00,34.5,28.4,17.72,WSW,254,0.0,0.0,78,0.00,,FEW085,0.00,VWS V14.01,2013-04-27 07:49:00,
2013-04-27 03:50:00,34.5,28.4,17.72,WSW,254,0.0,0.0,78,0.00,,FEW085,0.00,VWS V14.01,2013-04-27 07:50:00,
2013-04-27 03:51:00,34.3,28.2,17.72,WSW,255,0.0,0.0,78,0.00,,CLR,0.00,VWS V14.01,2013-04-27 07:51:00,
2013-04-27 03:52:00,34.3,28.2,17.72,WSW,254,0.0,0.0,78,0.00,,FEW085,0.00,VWS V14.01,2013-04-27 07:52:00,
2013-04-27 03:53:00,34.2,28.0,17.72,WSW,255,0.0,0.0,78,0.00,,FEW085,0.00,VWS V14.01,2013-04-27 07:53:00,
2013-04-27 03:54:00,34.2,28.0,17.72,WSW,254,0.0,0.0,78,0.00,,FEW085,0.00,VWS V14.01,2013-04-27 07:54:00,
2013-04-27 03:55:00,34.0,27.9,17.72,WSW,254,0.0,0.0,78,0.00,,FEW085,0.00,VWS V14.01,2013-04-27 07:55:00,
2013-04-27 03:56:00,34.0,27.9,17.72,WSW,254,0.0,0.0,78,0.00,,CLR,0.00,VWS V14.01,2013-04-27 07:56:00,
2013-04-27 03:57:00,34.0,27.9,17.72,WSW,254,0.0,0.0,78,0.00,,FEW085,0.00,VWS V14.01,2013-04-27 07:57:00,
2013-04-27 03:58:00,33.8,27.7,17.72,WSW,255,0.0,0.0,78,0.00,,FEW085,0.00,VWS V14.01,2013-04-27 07:58:00,
2013-04-27 03:59:00,33.8,27.7,17.72,WSW,254,0.0,0.0,78,0.00,,FEW085,0.00,VWS V14.01,2013-04-27 07:59:00,
2013-04-27 04:00:00,33.8,27.7,17.72,WSW,254,0.0,0.0,78,0.00,,FEW085,0.00,VWS V14.01,2013-04-27 08:00:00,
2013-04-27 04:01:00,33.8,27.7,17.72,WSW,254,0.0,0.0,78,0.00,,CLR,0.00,VWS V14.01,2013-04-27 08:01:00,
2013-04-27 04:02:00,33.8,27.7,17.72,WSW,254,0.0,0.0,78,0.00,,FEW085,0.00,VWS V14.01,2013-04-27 08:02:00,
2013-04-27 04:03:00,33.6,27.8,17.72,WSW,254,0.0,0.0,79,0.00,,FEW085,0.00,VWS V14.01,2013-04-27 08:03:00,
2013-04-27 04:04:00,33.6,27.8,17.72,WSW,254,0.0,0.0,79,0.00,,FEW085,0.00,VWS V14.01,2013-04-27 08:04:00,
2013-04-27 04:05:00,33.6,27.8,17.72,WSW,254,0.0,0.0,79,0.00,,FEW085,0.00,VWS V14.01,2013-04-27 08:05:00,
2013-04-27 04:06:00,33.6,27.8,17.72,WSW,254,0.0,0.0,79,0.00,,CLR,0.00,VWS V14.01,2013-04-27 08:06:00,
2013-04-27 04:07:00,33.6,27.8,17.72,WSW,254,0.0,0.0,79,0.00,,FEW085,0.00,VWS V14.01,2013-04-27 08:07:00,
2013-04-27 04:08:00,33.4,27.6,17.72,WSW,254,0.0,0.0,79,0.00,,FEW085,0.00,VWS V14.01,2013-04-27 08:08:00,
2013-04-27 04:09:00,33.4,27.6,17.72,WSW,254,0.0,0.0,79,0.00,,FEW085,0.00,VWS V14.01,2013-04-27 08:09:00,
2013-04-27 04:10:00,33.4,27.6,17.72,WSW,254,0.0,0.0,79,0.00,,FEW085,0.00,VWS V14.01,2013-04-27 08:10:00,
2013-04-27 04:11:00,33.4,27.6,17.72,WSW,254,0.0,0.0,79,0.00,,CLR,0.00,VWS V14.01,2013-04-27 08:11:00,
2013-04-27 04:12:00,33.4,27.6,17.72,WSW,254,0.0,0.0,79,0.00,,FEW085,0.00,VWS V14.01,2013-04-27 08:12:00,
2013-04-27 04:13:00,33.3,27.5,17.72,WSW,254,0.0,0.0,79,0.00,,FEW085,0.00,VWS V14.01,2013-04-27 08:13:00,
2013-04-27 04:14:00,33.3,27.5,17.72,WSW,255,0.0,0.0,79,0.00,,FEW085,0.00,VWS V14.01,2013-04-27 08:14:00,
2013-04-27 04:15:00,33.3,27.5,17.72,WSW,254,0.0,0.0,79,0.00,,FEW085,0.00,VWS V14.01,2013-04-27 08:15:00,
2013-04-27 04:16:00,33.3,27.5,17.72,WSW,255,0.0,0.0,79,0.00,,CLR,0.00,VWS V14.01,2013-04-27 08:16:00,
2013-04-27 04:17:00,33.3,27.5,17.72,WSW,255,0.0,0.0,79,0.00,,FEW085,0.00,VWS V14.01,2013-04-27 08:17:00,
2013-04-27 04:18:00,33.3,27.5,17.72,WSW,254,0.0,0.0,79,0.00,,FEW085,0.00,VWS V14.01,2013-04-27 08:18:00,
2013-04-27 04:19:00,33.3,27.5,17.72,WSW,255,0.0,0.0,79,0.00,,FEW085,0.00,VWS V14.01,2013-04-27 08:19:00,
2013-04-27 04:20:00,33.4,27.6,17.72,WSW,254,0.0,0.0,79,0.00,,FEW085,0.00,VWS V14.01,2013-04-27 08:20:00,
2013-04-27 04:21:00,33.4,27.6,17.72,WSW,254,0.0,0.0,79,0.00,,CLR,0.00,VWS V14.01,2013-04-27 08:21:00,
2013-04-27 04:22:00,33.4,27.6,17.72,WSW,254,0.0,0.0,79,0.00,,FEW085,0.00,VWS V14.01,2013-04-27 08:22:00,
2013-04-27 04:23:00,33.4,27.6,17.72,WSW,254,0.0,0.0,79,0.00,,FEW085,0.00,VWS V14.01,2013-04-27 08:23:00,
2013-04-27 04:24:00,33.6,27.8,17.72,WSW,254,0.0,0.0,79,0.00,,FEW085,0.00,VWS V14.01,2013-04-27 08:24:00,
2013-04-27 04:25:00,33.4,27.6,17.72,WSW,254,0.0,0.0,79,0.00,,FEW085,0.00,VWS V14.01,2013-04-27 08:25:00,
2013-04-27 04:26:00,33.4,27.6,17.72,WSW,254,0.0,0.0,79,0.00,,CLR,0.00,VWS V14.01,2013-04-27 08:26:00,
2013-04-27 04:27:00,33.4,27.6,17.72,WSW,255,0.0,0.0,79,0.00,,FEW085,0.00,VWS V14.01,2013-04-27 08:27:00,
2013-04-27 04:28:00,33.4,27.6,17.72,WSW,254,0.0,0.0,79,0.00,,FEW085,0.00,VWS V14.01,2013-04-27 08:28:00,
2013-04-27 04:29:00,33.4,27.6,17.72,WSW,254,0.0,0.0,79,0.00,,FEW085,0.00,VWS V14.01,2013-04-27 08:29:00,
2013-04-27 04:30:00,33.3,27.5,17.72,WSW,254,0.0,0.0,79,0.00,,FEW085,0.00,VWS V14.01,2013-04-27 08:30:00,
2013-04-27 04:31:00,33.3,27.5,17.72,WSW,254,0.0,0.0,79,0.00,,CLR,0.00,VWS V14.01,2013-04-27 08:31:00,
2013-04-27 04:32:00,33.3,27.5,17.72,WSW,254,0.0,0.0,79,0.00,,FEW085,0.00,VWS V14.01,2013-04-27 08:32:00,
2013-04-27 04:33:00,33.3,27.5,17.72,WSW,254,0.0,0.0,79,0.00,,FEW085,0.00,VWS V14.01,2013-04-27 08:33:00,
2013-04-27 04:34:00,33.3,27.5,17.72,WSW,254,0.0,0.0,79,0.00,,FEW085,0.00,VWS V14.01,2013-04-27 08:34:00,
2013-04-27 04:35:00,33.3,27.5,17.72,WSW,254,0.0,0.0,79,0.00,,FEW085,0.00,VWS V14.01,2013-04-27 08:35:00,
2013-04-27 04:36:00,33.3,27.5,17.72,WSW,254,0.0,0.0,79,0.00,,CLR,0.00,VWS V14.01,2013-04-27 08:36:00,
2013-04-27 04:37:00,33.3,27.5,17.72,WSW,254,0.0,0.0,79,0.00,,FEW085,0.00,VWS V14.01,2013-04-27 08:37:00,
2013-04-27 04:38:00,33.3,27.8,17.72,WSW,255,0.0,0.0,80,0.00,,FEW085,0.00,VWS V14.01,2013-04-27 08:38:00,
2013-04-27 04:39:00,33.3,27.8,17.72,WSW,254,0.0,0.0,80,0.00,,FEW085,0.00,VWS V14.01,2013-04-27 08:39:00,
2013-04-27 04:40:00,33.3,27.8,17.72,WSW,254,0.0,0.0,80,0.00,,FEW085,0.00,VWS V14.01,2013-04-27 08:40:00,
2013-04-27 04:41:00,33.3,27.8,17.72,WSW,254,0.0,0.0,80,0.00,,CLR,0.00,VWS V14.01,2013-04-27 08:41:00,
2013-04-27 04:42:00,33.3,27.8,17.72,WSW,255,0.0,0.0,80,0.00,,FEW085,0.00,VWS V14.01,2013-04-27 08:42:00,
2013-04-27 04:43:00,33.3,27.8,17.72,WSW,254,0.0,0.0,80,0.00,,FEW085,0.00,VWS V14.01,2013-04-27 08:43:00,
2013-04-27 04:44:00,33.4,27.9,17.72,WSW,254,0.0,0.0,80,0.00,,FEW085,0.00,VWS V14.01,2013-04-27 08:44:00,
2013-04-27 04:45:00,33.4,27.9,17.72,WSW,254,0.0,0.0,80,0.00,,FEW085,0.00,VWS V14.01,2013-04-27 08:45:00,
2013-04-27 04:46:00,33.6,28.1,17.72,WSW,254,0.0,0.0,80,0.00,,CLR,0.00,VWS V14.01,2013-04-27 08:46:00,
2013-04-27 04:47:00,33.6,28.1,17.72,WSW,255,0.0,0.0,80,0.00,,FEW085,0.00,VWS V14.01,2013-04-27 08:47:00,
2013-04-27 04:48:00,33.6,28.1,17.72,WSW,255,0.0,0.0,80,0.00,,FEW085,0.00,VWS V14.01,2013-04-27 08:48:00,
2013-04-27 04:49:00,33.6,28.1,17.72,WSW,255,0.0,0.0,80,0.00,,FEW085,0.00,VWS V14.01,2013-04-27 08:49:00,
2013-04-27 04:50:00,33.6,28.1,17.72,WSW,255,0.0,0.0,80,0.00,,FEW085,0.00,VWS V14.01,2013-04-27 08:50:00,
2013-04-27 04:51:00,33.6,28.1,17.72,WSW,254,0.0,0.0,80,0.00,,CLR,0.00,VWS V14.01,2013-04-27 08:51:00,
2013-04-27 04:52:00,33.6,28.1,17.72,WSW,254,0.0,0.0,80,0.00,,FEW085,0.00,VWS V14.01,2013-04-27 08:52:00,
2013-04-27 04:53:00,33.8,28.3,17.72,WSW,254,0.0,0.0,80,0.00,,FEW085,0.00,VWS V14.01,2013-04-27 08:53:00,
2013-04-27 04:54:00,33.8,28.3,17.72,WSW,254,0.0,0.0,80,0.00,,FEW085,0.00,VWS V14.01,2013-04-27 08:54:00,
2013-04-27 04:55:00,33.8,28.3,17.72,WSW,254,0.0,0.0,80,0.00,,FEW085,0.00,VWS V14.01,2013-04-27 08:55:00,
2013-04-27 04:56:00,33.8,28.3,17.72,WSW,254,0.0,0.0,80,0.00,,CLR,0.00,VWS V14.01,2013-04-27 08:56:00,
2013-04-27 04:57:00,33.8,28.3,17.72,WSW,255,0.0,0.0,80,0.00,,FEW085,0.00,VWS V14.01,2013-04-27 08:57:00,
2013-04-27 04:58:00,33.6,28.1,17.72,WSW,254,0.0,0.0,80,0.00,,FEW085,0.00,VWS V14.01,2013-04-27 08:58:00,
2013-04-27 04:59:00,33.6,28.1,17.72,WSW,254,0.0,0.0,80,0.00,,FEW085,0.00,VWS V14.01,2013-04-27 08:59:00,
2013-04-27 05:00:00,33.6,28.1,17.72,WSW,254,0.0,0.0,80,0.00,,FEW085,0.00,VWS V14.01,2013-04-27 09:00:00,
2013-04-27 05:01:00,33.6,28.1,17.72,WSW,254,0.0,0.0,80,0.00,,CLR,0.00,VWS V14.01,2013-04-27 09:01:00,
2013-04-27 05:02:00,33.4,27.9,17.72,WSW,254,0.0,0.0,80,0.00,,FEW085,0.00,VWS V14.01,2013-04-27 09:02:00,
2013-04-27 05:03:00,33.4,27.9,17.72,WSW,255,0.0,0.0,80,0.00,,FEW085,0.00,VWS V14.01,2013-04-27 09:03:00,
2013-04-27 05:04:00,33.3,27.8,17.72,WSW,254,0.0,0.0,80,0.00,,FEW085,0.00,VWS V14.01,2013-04-27 09:04:00,
2013-04-27 05:05:00,33.3,27.8,17.72,WSW,254,0.0,0.0,80,0.00,,FEW085,0.00,VWS V14.01,2013-04-27 09:05:00,
2013-04-27 05:06:00,33.3,27.8,17.72,WSW,255,0.0,0.0,80,0.00,,CLR,0.00,VWS V14.01,2013-04-27 09:06:00,
2013-04-27 05:07:00,33.3,28.1,17.72,WSW,254,0.0,0.0,81,0.00,,FEW085,0.00,VWS V14.01,2013-04-27 09:07:00,
2013-04-27 05:08:00,33.3,28.1,17.72,WSW,254,0.0,0.0,81,0.00,,FEW085,0.00,VWS V14.01,2013-04-27 09:08:00,
2013-04-27 05:09:00,33.1,27.9,17.72,WSW,254,0.0,0.0,81,0.00,,FEW085,0.00,VWS V14.01,2013-04-27 09:09:00,
2013-04-27 05:10:00,33.1,27.9,17.72,WSW,254,0.0,0.0,81,0.00,,FEW085,0.00,VWS V14.01,2013-04-27 09:10:00,
2013-04-27 05:11:00,33.1,27.9,17.72,WSW,254,0.0,0.0,81,0.00,,CLR,0.00,VWS V14.01,2013-04-27 09:11:00,
2013-04-27 05:12:00,33.1,27.9,17.72,WSW,255,0.0,0.0,81,0.00,,FEW085,0.00,VWS V14.01,2013-04-27 09:12:00,
2013-04-27 05:13:00,32.9,27.7,17.72,WSW,254,0.0,0.0,81,0.00,,FEW085,0.00,VWS V14.01,2013-04-27 09:13:00,
2013-04-27 05:14:00,32.9,27.7,17.72,WSW,254,0.0,0.0,81,0.00,,FEW085,0.00,VWS V14.01,2013-04-27 09:14:00,
2013-04-27 05:15:00,32.9,27.7,17.72,WSW,254,0.0,0.0,81,0.00,,FEW085,0.00,VWS V14.01,2013-04-27 09:15:00,
2013-04-27 05:16:00,32.9,27.7,17.72,WSW,254,0.0,0.0,81,0.00,,CLR,0.00,VWS V14.01,2013-04-27 09:16:00,
2013-04-27 05:17:00,32.7,27.5,17.72,WSW,254,0.0,0.0,81,0.00,,FEW085,0.00,VWS V14.01,2013-04-27 09:17:00,
2013-04-27 05:18:00,32.7,27.5,17.72,WSW,254,0.0,0.0,81,0.00,,FEW085,0.00,VWS V14.01,2013-04-27 09:18:00,
2013-04-27 05:19:00,32.7,27.5,17.72,WSW,254,0.0,0.0,81,0.00,,FEW085,0.00,VWS V14.01,2013-04-27 09:19:00,
2013-04-27 05:20:00,32.9,27.7,17.72,WSW,254,0.0,0.0,81,0.00,,FEW085,0.00,VWS V14.01,2013-04-27 09:20:00,
2013-04-27 05:21:00,32.9,28.0,17.72,WSW,255,0.0,0.0,82,0.00,,CLR,0.00,VWS V14.01,2013-04-27 09:21:00,
2013-04-27 05:22:00,32.9,28.0,17.72,WSW,254,0.0,0.0,82,0.00,,FEW085,0.00,VWS V14.01,2013-04-27 09:22:00,
2013-04-27 05:23:00,32.9,28.0,17.72,WSW,254,0.0,0.0,82,0.00,,FEW085,0.00,VWS V14.01,2013-04-27 09:23:00,
2013-04-27 05:24:00,32.9,28.0,17.72,WSW,254,0.0,0.0,82,0.00,,FEW085,0.00,VWS V14.01,2013-04-27 09:24:00,
2013-04-27 05:25:00,32.9,28.0,17.72,WSW,254,0.0,0.0,82,0.00,,FEW085,0.00,VWS V14.01,2013-04-27 09:25:00,
2013-04-27 05:26:00,33.1,28.2,17.72,WSW,254,0.0,0.0,82,0.00,,CLR,0.00,VWS V14.01,2013-04-27 09:26:00,
2013-04-27 05:27:00,33.1,28.2,17.72,WSW,254,0.0,0.0,82,0.00,,FEW085,0.00,VWS V14.01,2013-04-27 09:27:00,
2013-04-27 05:28:00,33.1,28.2,17.72,WSW,255,0.0,0.0,82,0.00,,FEW085,0.00,VWS V14.01,2013-04-27 09:28:00,
2013-04-27 05:29:00,33.1,28.2,17.72,WSW,254,0.0,0.0,82,0.00,,FEW085,0.00,VWS V14.01,2013-04-27 09:29:00,
2013-04-27 05:30:00,32.9,28.0,17.72,WSW,254,0.0,0.0,82,0.00,,FEW085,0.00,VWS V14.01,2013-04-27 09:30:00,
2013-04-27 05:31:00,32.9,28.0,17.72,WSW,254,0.0,0.0,82,0.00,,CLR,0.00,VWS V14.01,2013-04-27 09:31:00,
2013-04-27 05:32:00,32.9,28.0,17.72,WSW,254,0.0,0.0,82,0.00,,FEW085,0.00,VWS V14.01,2013-04-27 09:32:00,
2013-04-27 05:33:00,32.9,28.0,17.72,WSW,254,0.0,0.0,82,0.00,,FEW085,0.00,VWS V14.01,2013-04-27 09:33:00,
2013-04-27 05:34:00,32.7,27.8,17.72,WSW,254,0.0,0.0,82,0.00,,FEW085,0.00,VWS V14.01,2013-04-27 09:34:00,
2013-04-27 05:35:00,32.7,27.8,17.72,WSW,254,0.0,0.0,82,0.00,,FEW085,0.00,VWS V14.01,2013-04-27 09:35:00,
2013-04-27 05:36:00,32.7,27.8,17.72,WSW,254,0.0,0.0,82,0.00,,CLR,0.00,VWS V14.01,2013-04-27 09:36:00,
2013-04-27 05:37:00,32.7,27.8,17.72,WSW,254,0.0,0.0,82,0.00,,FEW085,0.00,VWS V14.01,2013-04-27 09:37:00,
2013-04-27 05:38:00,32.5,27.7,17.72,WSW,254,0.0,0.0,82,0.00,,FEW085,0.00,VWS V14.01,2013-04-27 09:38:00,
2013-04-27 05:39:00,32.5,27.7,17.72,WSW,255,0.0,0.0,82,0.00,,FEW085,0.00,VWS V14.01,2013-04-27 09:39:00,
2013-04-27 05:40:00,32.5,27.7,17.72,WSW,254,0.0,0.0,82,0.00,,FEW085,0.00,VWS V14.01,2013-04-27 09:40:00,
2013-04-27 05:41:00,32.4,27.5,17.72,WSW,254,0.0,0.0,82,0.00,,CLR,0.00,VWS V14.01,2013-04-27 09:41:00,
2013-04-27 05:42:00,32.4,27.5,17.72,WSW,254,0.0,0.0,82,0.00,,FEW085,0.00,VWS V14.01,2013-04-27 09:42:00,
2013-04-27 05:43:00,32.4,27.5,17.72,WSW,254,0.0,0.0,82,0.00,,FEW085,0.00,VWS V14.01,2013-04-27 09:43:00,
2013-04-27 05:44:00,32.2,27.3,17.72,WSW,254,0.0,0.0,82,0.00,,FEW085,0.00,VWS V14.01,2013-04-27 09:44:00,
2013-04-27 05:45:00,32.2,27.3,17.72,WSW,254,0.0,0.0,82,0.00,,FEW085,0.00,VWS V14.01,2013-04-27 09:45:00,
2013-04-27 05:46:00,32.2,27.3,17.72,WSW,254,0.0,0.0,82,0.00,,CLR,0.00,VWS V14.01,2013-04-27 09:46:00,
2013-04-27 05:47:00,32.2,27.3,17.72,WSW,254,0.0,0.0,82,0.00,,FEW085,0.00,VWS V14.01,2013-04-27 09:47:00,
2013-04-27 05:48:00,32.2,27.3,17.72,WSW,254,0.0,0.0,82,0.00,,FEW085,0.00,VWS V14.01,2013-04-27 09:48:00,
2013-04-27 05:49:00,32.2,27.3,17.72,WSW,254,0.0,0.0,82,0.00,,FEW085,0.00,VWS V14.01,2013-04-27 09:49:00,
2013-04-27 05:50:00,32.0,27.1,17.72,ENE,68,0.0,0.0,82,0.00,,FEW085,0.00,VWS V14.01,2013-04-27 09:50:00,
2013-04-27 05:51:00,32.0,27.1,17.72,ENE,67,0.0,0.0,82,0.00,,CLR,0.00,VWS V14.01,2013-04-27 09:51:00,
2013-04-27 05:52:00,31.8,27.0,17.72,ENE,67,0.0,0.0,82,0.00,,FEW085,0.00,VWS V14.01,2013-04-27 09:52:00,
2013-04-27 05:53:00,31.8,27.0,17.72,ENE,67,0.0,0.0,82,0.00,,FEW085,0.00,VWS V14.01,2013-04-27 09:53:00,
2013-04-27 05:54:00,31.8,27.0,17.72,ENE,67,0.0,0.0,82,0.00,,FEW085,0.00,VWS V14.01,2013-04-27 09:54:00,
2013-04-27 05:55:00,31.8,27.0,17.72,ENE,67,0.0,0.0,82,0.00,,FEW085,0.00,VWS V14.01,2013-04-27 09:55:00,
2013-04-27 05:56:00,31.6,26.8,17.72,ENE,67,0.0,0.0,82,0.00,,CLR,0.00,VWS V14.01,2013-04-27 09:56:00,
2013-04-27 05:57:00,31.6,26.8,17.72,ENE,67,0.0,0.0,82,0.00,,FEW085,0.00,VWS V14.01,2013-04-27 09:57:00,
2013-04-27 05:58:00,31.6,26.8,17.72,ENE,67,0.0,0.0,82,0.00,,FEW085,0.00,VWS V14.01,2013-04-27 09:58:00,
2013-04-27 05:59:00,31.6,26.8,17.72,ENE,67,0.0,0.0,82,0.00,,FEW085,0.00,VWS V14.01,2013-04-27 09:59:00,
2013-04-27 06:00:00,31.5,26.6,17.72,ENE,67,0.0,0.0,82,0.00,,FEW085,0.00,VWS V14.01,2013-04-27 10:00:00,
2013-04-27 06:01:00,31.5,26.6,17.72,ENE,67,0.0,0.0,82,0.00,,CLR,0.00,VWS V14.01,2013-04-27 10:01:00,
2013-04-27 06:02:00,31.5,26.6,17.72,ENE,67,0.0,0.0,82,0.00,,FEW085,0.00,VWS V14.01,2013-04-27 10:02:00,
2013-04-27 06:03:00,31.5,26.6,17.72,ENE,67,0.0,0.0,82,0.00,,FEW085,0.00,VWS V14.01,2013-04-27 10:03:00,
2013-04-27 06:04:00,31.5,26.6,17.72,ENE,67,0.0,0.0,82,0.00,,FEW085,0.00,VWS V14.01,2013-04-27 10:04:00,
2013-04-27 06:05:00,31.5,26.6,17.72,ENE,67,0.0,0.0,82,0.00,,FEW085,0.00,VWS V14.01,2013-04-27 10:05:00,
2013-04-27 06:06:00,31.5,26.6,17.72,ENE,67,0.0,0.0,82,0.00,,CLR,0.00,VWS V14.01,2013-04-27 10:06:00,
2013-04-27 06:07:00,31.5,26.6,17.72,ENE,67,0.0,0.0,82,0.00,,FEW085,0.00,VWS V14.01,2013-04-27 10:07:00,
2013-04-27 06:08:00,31.5,26.6,17.72,ENE,67,0.0,0.0,82,0.00,,FEW085,0.00,VWS V14.01,2013-04-27 10:08:00,
2013-04-27 06:09:00,31.5,26.6,17.72,ENE,67,0.0,0.0,82,0.00,,FEW085,0.00,VWS V14.01,2013-04-27 10:09:00,
2013-04-27 06:10:00,31.5,26.6,17.72,ENE,67,0.0,0.0,82,0.00,,FEW085,0.00,VWS V14.01,2013-04-27 10:10:00,
2013-04-27 06:11:00,31.5,26.9,17.72,ENE,67,0.0,0.0,83,0.00,,CLR,0.00,VWS V14.01,2013-04-27 10:11:00,
2013-04-27 06:12:00,31.5,26.9,17.72,ENE,67,0.0,0.0,83,0.00,,FEW085,0.00,VWS V14.01,2013-04-27 10:12:00,
2013-04-27 06:13:00,31.6,27.1,17.72,ENE,67,0.0,0.0,83,0.00,,FEW085,0.00,VWS V14.01,2013-04-27 10:13:00,
2013-04-27 06:14:00,31.6,27.1,17.72,ENE,67,0.0,0.0,83,0.00,,FEW085,0.00,VWS V14.01,2013-04-27 10:14:00,
2013-04-27 06:15:00,31.6,27.1,17.72,ENE,67,0.0,0.0,83,0.00,,FEW085,0.00,VWS V14.01,2013-04-27 10:15:00,
2013-04-27 06:16:00,31.8,27.3,17.72,ENE,67,0.0,0.0,83,0.00,,CLR,0.00,VWS V14.01,2013-04-27 10:16:00,
2013-04-27 06:17:00,31.8,27.2,17.72,ENE,67,0.0,0.0,83,0.00,,FEW085,0.00,VWS V14.01,2013-04-27 10:17:00,
2013-04-27 06:18:00,32.0,27.4,17.72,ENE,67,0.0,0.0,83,0.00,,FEW085,0.00,VWS V14.01,2013-04-27 10:18:00,
2013-04-27 06:19:00,32.0,27.4,17.72,ENE,67,0.0,0.0,83,0.00,,FEW085,0.00,VWS V14.01,2013-04-27 10:19:00,
2013-04-27 06:20:00,32.2,27.6,17.72,ENE,67,0.0,0.0,83,0.00,,FEW085,0.00,VWS V14.01,2013-04-27 10:20:00,
2013-04-27 06:21:00,32.2,27.6,17.72,ENE,67,0.0,0.0,83,0.00,,CLR,0.00,VWS V14.01,2013-04-27 10:21:00,
2013-04-27 06:22:00,32.4,27.8,17.72,ENE,67,0.0,0.0,83,0.00,,FEW085,0.00,VWS V14.01,2013-04-27 10:22:00,
2013-04-27 06:23:00,32.4,27.8,17.72,ENE,67,0.0,0.0,83,0.00,,FEW085,0.00,VWS V14.01,2013-04-27 10:23:00,
2013-04-27 06:24:00,32.5,28.0,17.72,ENE,67,0.0,0.0,83,0.00,,FEW085,0.00,VWS V14.01,2013-04-27 10:24:00,
2013-04-27 06:25:00,32.5,28.0,17.72,ENE,67,0.0,0.0,83,0.00,,FEW085,0.00,VWS V14.01,2013-04-27 10:25:00,
2013-04-27 06:26:00,32.7,28.1,17.72,ENE,67,0.0,0.0,83,0.00,,CLR,0.00,VWS V14.01,2013-04-27 10:26:00,
2013-04-27 06:27:00,32.7,28.1,17.72,ENE,67,0.0,0.0,83,0.00,,FEW085,0.00,VWS V14.01,2013-04-27 10:27:00,
2013-04-27 06:28:00,32.9,28.6,17.72,ENE,67,0.0,0.0,84,0.00,,FEW085,0.00,VWS V14.01,2013-04-27 10:28:00,
2013-04-27 06:29:00,33.1,28.8,17.72,ENE,67,0.0,0.0,84,0.00,,FEW085,0.00,VWS V14.01,2013-04-27 10:29:00,
2013-04-27 06:30:00,33.1,28.8,17.72,ENE,67,0.0,0.0,84,0.00,,FEW085,0.00,VWS V14.01,2013-04-27 10:30:00,
2013-04-27 06:31:00,33.1,28.8,17.72,ENE,67,0.0,0.0,84,0.00,,CLR,0.00,VWS V14.01,2013-04-27 10:31:00,
2013-04-27 06:32:00,33.3,29.0,17.72,ENE,67,0.0,0.0,84,0.00,,FEW085,0.00,VWS V14.01,2013-04-27 10:32:00,
2013-04-27 06:33:00,33.3,29.0,17.72,ENE,67,0.0,0.0,84,0.00,,FEW085,0.00,VWS V14.01,2013-04-27 10:33:00,
2013-04-27 06:34:00,33.4,29.1,17.72,ENE,67,0.0,0.0,84,0.00,,FEW085,0.00,VWS V14.01,2013-04-27 10:34:00,
2013-04-27 06:35:00,33.4,29.1,17.72,ENE,67,0.0,0.0,84,0.00,,FEW085,0.00,VWS V14.01,2013-04-27 10:35:00,
2013-04-27 06:36:00,33.6,29.3,17.72,ENE,67,0.0,0.0,84,0.00,,CLR,0.00,VWS V14.01,2013-04-27 10:36:00,
2013-04-27 06:37:00,33.6,29.3,17.72,ENE,67,0.0,0.0,84,0.00,,FEW085,0.00,VWS V14.01,2013-04-27 10:37:00,
2013-04-27 06:38:00,33.6,29.3,17.72,ENE,67,0.0,0.0,84,0.00,,FEW085,0.00,VWS V14.01,2013-04-27 10:38:00,
2013-04-27 06:39:00,33.8,29.5,17.72,ENE,67,0.0,0.0,84,0.00,,FEW085,0.00,VWS V14.01,2013-04-27 10:39:00,
2013-04-27 06:40:00,33.8,29.5,17.72,ENE,67,0.0,0.0,84,0.00,,FEW085,0.00,VWS V14.01,2013-04-27 10:40:00,
2013-04-27 06:41:00,33.8,29.5,17.72,ENE,67,0.0,0.0,84,0.00,,CLR,0.00,VWS V14.01,2013-04-27 10:41:00,
2013-04-27 06:42:00,34.0,29.7,17.72,ENE,67,0.0,0.0,84,0.00,,FEW085,0.00,VWS V14.01,2013-04-27 10:42:00,
2013-04-27 06:43:00,34.0,29.7,17.72,ENE,67,0.0,0.0,84,0.00,,FEW085,0.00,VWS V14.01,2013-04-27 10:43:00,
2013-04-27 06:44:00,34.2,29.8,17.72,ENE,67,0.0,0.0,84,0.00,,FEW085,0.00,VWS V14.01,2013-04-27 10:44:00,
2013-04-27 06:45:00,34.2,30.1,17.72,ENE,67,0.0,0.0,85,0.00,,FEW085,0.00,VWS V14.01,2013-04-27 10:45:00,
2013-04-27 06:46:00,34.3,30.3,17.72,ENE,67,0.0,0.0,85,0.00,,CLR,0.00,VWS V14.01,2013-04-27 10:46:00,
2013-04-27 06:47:00,34.3,30.3,17.72,ENE,67,0.0,0.0,85,0.00,,FEW085,0.00,VWS V14.01,2013-04-27 10:47:00,
2013-04-27 06:48:00,34.5,30.5,17.72,ENE,67,0.0,0.0,85,0.00,,FEW085,0.00,VWS V14.01,2013-04-27 10:48:00,
2013-04-27 06:49:00,34.5,30.5,17.72,ENE,67,0.0,0.0,85,0.00,,FEW085,0.00,VWS V14.01,2013-04-27 10:49:00,
2013-04-27 06:50:00,34.5,30.5,17.72,ENE,67,0.0,0.0,85,0.00,,FEW085,0.00,VWS V14.01,2013-04-27 10:50:00,
2013-04-27 06:51:00,34.7,30.7,17.72,ENE,67,0.0,0.0,85,0.00,,CLR,0.00,VWS V14.01,2013-04-27 10:51:00,
2013-04-27 06:52:00,34.7,30.7,17.72,ENE,67,0.0,0.0,85,0.00,,FEW085,0.00,VWS V14.01,2013-04-27 10:52:00,
2013-04-27 06:53:00,34.9,30.8,17.72,ENE,67,0.0,0.0,85,0.00,,FEW085,0.00,VWS V14.01,2013-04-27 10:53:00,
2013-04-27 06:54:00,34.9,30.8,17.72,ENE,67,0.0,0.0,85,0.00,,FEW085,0.00,VWS V14.01,2013-04-27 10:54:00,
2013-04-27 06:55:00,35.1,31.0,17.72,ENE,67,0.0,0.0,85,0.00,,FEW085,0.00,VWS V14.01,2013-04-27 10:55:00,
2013-04-27 06:56:00,35.1,31.0,17.72,ENE,67,0.0,0.0,85,0.00,,CLR,0.00,VWS V14.01,2013-04-27 10:56:00,
2013-04-27 06:57:00,35.2,31.2,17.72,ENE,67,0.0,0.0,85,0.00,,FEW085,0.00,VWS V14.01,2013-04-27 10:57:00,
2013-04-27 06:58:00,35.2,31.5,17.72,ENE,67,0.0,0.0,86,0.00,,FEW085,0.00,VWS V14.01,2013-04-27 10:58:00,
2013-04-27 06:59:00,35.4,31.7,17.72,ENE,67,0.0,0.0,86,0.00,,FEW085,0.00,VWS V14.01,2013-04-27 10:59:00,
2013-04-27 07:00:00,35.4,31.7,17.72,ENE,67,0.0,0.0,86,0.00,,FEW085,0.00,VWS V14.01,2013-04-27 11:00:00,
2013-04-27 07:01:00,35.4,31.7,17.72,ENE,67,0.0,0.0,86,0.00,,CLR,0.00,VWS V14.01,2013-04-27 11:01:00,
2013-04-27 07:02:00,35.6,31.5,17.72,ENE,67,0.0,0.0,85,0.00,,FEW085,0.00,VWS V14.01,2013-04-27 11:02:00,
2013-04-27 07:03:00,35.6,31.5,17.72,ENE,67,0.0,0.0,85,0.00,,FEW085,0.00,VWS V14.01,2013-04-27 11:03:00,
2013-04-27 07:04:00,35.6,31.5,17.72,ENE,67,0.0,0.0,85,0.00,,FEW085,0.00,VWS V14.01,2013-04-27 11:04:00,
2013-04-27 07:05:00,35.8,32.0,17.72,ENE,67,0.0,0.0,86,0.00,,FEW085,0.00,VWS V14.01,2013-04-27 11:05:00,
2013-04-27 07:06:00,35.8,32.0,17.72,ENE,67,0.0,0.0,86,0.00,,CLR,0.00,VWS V14.01,2013-04-27 11:06:00,
2013-04-27 07:07:00,36.0,32.2,17.72,ENE,67,0.0,0.0,86,0.00,,FEW085,0.00,VWS V14.01,2013-04-27 11:07:00,
2013-04-27 07:08:00,36.1,32.4,17.72,ENE,67,0.0,0.0,86,0.00,,FEW085,0.00,VWS V14.01,2013-04-27 11:08:00,
2013-04-27 07:09:00,36.1,32.4,17.72,ENE,67,0.0,0.0,86,0.00,,FEW085,0.00,VWS V14.01,2013-04-27 11:09:00,
2013-04-27 07:10:00,36.1,32.4,17.72,ENE,67,0.0,0.0,86,0.00,,FEW085,0.00,VWS V14.01,2013-04-27 11:10:00,
2013-04-27 07:11:00,36.3,32.5,17.72,ENE,67,0.0,0.0,86,0.00,,CLR,0.00,VWS V14.01,2013-04-27 11:11:00,
2013-04-27 07:12:00,36.5,32.7,17.72,ENE,67,0.0,0.0,86,0.00,,FEW085,0.00,VWS V14.01,2013-04-27 11:12:00,
2013-04-27 07:13:00,36.5,32.7,17.72,ENE,67,0.0,0.0,86,0.00,,FEW085,0.00,VWS V14.01,2013-04-27 11:13:00,
2013-04-27 07:14:00,36.7,32.9,17.72,ENE,67,0.0,0.0,86,0.00,,FEW085,0.00,VWS V14.01,2013-04-27 11:14:00,
2013-04-27 07:15:00,36.9,33.1,17.72,ENE,67,0.0,0.0,86,0.00,,FEW085,0.00,VWS V14.01,2013-04-27 11:15:00,
2013-04-27 07:16:00,37.0,33.2,17.72,ENE,67,0.0,0.0,86,0.00,,CLR,0.00,VWS V14.01,2013-04-27 11:16:00,
2013-04-27 07:17:00,37.2,33.4,17.72,ENE,67,0.0,0.0,86,0.00,,FEW085,0.00,VWS V14.01,2013-04-27 11:17:00,
2013-04-27 07:18:00,37.4,33.6,17.72,ENE,67,0.0,0.0,86,0.00,,FEW085,0.00,VWS V14.01,2013-04-27 11:18:00,
2013-04-27 07:19:00,37.6,33.8,17.72,ENE,67,0.0,0.0,86,0.00,,FEW085,0.00,VWS V14.01,2013-04-27 11:19:00,
2013-04-27 07:20:00,37.8,34.0,17.72,ENE,67,0.0,0.0,86,0.00,,FEW085,0.00,VWS V14.01,2013-04-27 11:20:00,
2013-04-27 07:21:00,37.9,34.1,17.72,ENE,67,0.0,0.0,86,0.00,,CLR,0.00,VWS V14.01,2013-04-27 11:21:00,
2013-04-27 07:22:00,38.1,34.3,17.72,ENE,67,0.0,0.0,86,0.00,,FEW085,0.00,VWS V14.01,2013-04-27 11:22:00,
2013-04-27 07:23:00,38.1,34.6,17.72,ENE,67,0.0,0.0,87,0.00,,FEW085,0.00,VWS V14.01,2013-04-27 11:23:00,
2013-04-27 07:24:00,38.5,35.0,17.72,ENE,67,0.0,0.0,87,0.00,,FEW085,0.00,VWS V14.01,2013-04-27 11:24:00,
2013-04-27 07:25:00,38.5,35.0,17.72,ENE,67,0.0,0.0,87,0.00,,FEW085,0.00,VWS V14.01,2013-04-27 11:25:00,
2013-04-27 07:26:00,38.8,35.3,17.72,ENE,67,0.0,0.0,87,0.00,,CLR,0.00,VWS V14.01,2013-04-27 11:26:00,
2013-04-27 07:27:00,38.8,35.3,17.72,ENE,69,0.0,0.0,87,0.00,,FEW085,0.00,VWS V14.01,2013-04-27 11:27:00,
2013-04-27 07:28:00,39.0,35.5,17.72,ENE,69,0.0,0.0,87,0.00,,FEW085,0.00,VWS V14.01,2013-04-27 11:28:00,
2013-04-27 07:29:00,39.2,35.7,17.72,ENE,69,0.0,0.0,87,0.00,,FEW085,0.00,VWS V14.01,2013-04-27 11:29:00,
2013-04-27 07:30:00,39.4,35.8,17.72,ENE,69,0.0,0.0,87,0.00,,FEW085,0.00,VWS V14.01,2013-04-27 11:30:00,
2013-04-27 07:31:00,39.4,35.8,17.72,ENE,69,0.0,0.0,87,0.00,,CLR,0.00,VWS V14.01,2013-04-27 11:31:00,
2013-04-27 07:32:00,39.6,36.0,17.72,ENE,69,0.0,0.0,87,0.00,,FEW085,0.00,VWS V14.01,2013-04-27 11:32:00,
2013-04-27 07:33:00,39.6,36.0,17.72,ENE,69,0.0,0.0,87,0.00,,FEW085,0.00,VWS V14.01,2013-04-27 11:33:00,
2013-04-27 07:34:00,39.7,36.2,17.72,ENE,69,0.0,0.0,87,0.00,,FEW085,0.00,VWS V14.01,2013-04-27 11:34:00,
2013-04-27 07:35:00,39.9,36.4,17.72,ENE,69,0.0,0.0,87,0.00,,FEW085,0.00,VWS V14.01,2013-04-27 11:35:00,
2013-04-27 07:36:00,39.9,36.4,17.72,ENE,69,0.0,0.0,87,0.00,,CLR,0.00,VWS V14.01,2013-04-27 11:36:00,
2013-04-27 07:37:00,40.1,36.5,17.72,ENE,69,0.0,0.0,87,0.00,,FEW085,0.00,VWS V14.01,2013-04-27 11:37:00,
2013-04-27 07:38:00,40.1,36.5,17.72,ENE,69,0.0,0.0,87,0.00,,FEW085,0.00,VWS V14.01,2013-04-27 11:38:00,
2013-04-27 07:39:00,40.3,36.7,17.72,ENE,67,0.0,0.0,87,0.00,,FEW085,0.00,VWS V14.01,2013-04-27 11:39:00,
2013-04-27 07:40:00,40.3,36.7,17.72,NE,55,0.0,0.0,87,0.00,,FEW085,0.00,VWS V14.01,2013-04-27 11:40:00,
2013-04-27 07:41:00,40.5,36.6,17.72,NE,55,0.0,0.0,86,0.00,,CLR,0.00,VWS V14.01,2013-04-27 11:41:00,
2013-04-27 07:42:00,40.5,36.6,17.72,NE,55,0.0,0.0,86,0.00,,FEW085,0.00,VWS V14.01,2013-04-27 11:42:00,
2013-04-27 07:43:00,40.5,36.6,17.72,NE,55,0.0,0.0,86,0.00,,FEW085,0.00,VWS V14.01,2013-04-27 11:43:00,
2013-04-27 07:44:00,40.6,36.8,17.72,NE,55,0.0,0.0,86,0.00,,FEW085,0.00,VWS V14.01,2013-04-27 11:44:00,
2013-04-27 07:45:00,40.6,36.8,17.72,NE,55,0.0,0.0,86,0.00,,FEW085,0.00,VWS V14.01,2013-04-27 11:45:00,
2013-04-27 07:46:00,40.6,36.8,17.72,NE,55,0.0,0.0,86,0.00,,CLR,0.00,VWS V14.01,2013-04-27 11:46:00,
2013-04-27 07:47:00,40.8,37.0,17.72,NE,55,0.0,0.0,86,0.00,,FEW085,0.00,VWS V14.01,2013-04-27 11:47:00,
2013-04-27 07:48:00,40.8,37.0,17.72,NE,55,0.0,0.0,86,0.00,,FEW085,0.00,VWS V14.01,2013-04-27 11:48:00,
2013-04-27 07:49:00,41.0,36.8,17.72,NE,55,0.0,0.0,85,0.00,,FEW085,0.00,VWS V14.01,2013-04-27 11:49:00,
2013-04-27 07:50:00,41.0,36.8,17.72,NE,55,0.0,0.0,85,0.00,,FEW085,0.00,VWS V14.01,2013-04-27 11:50:00,
2013-04-27 07:51:00,41.0,36.8,17.72,ENE,71,0.0,0.0,85,0.00,,CLR,0.00,VWS V14.01,2013-04-27 11:51:00,
2013-04-27 07:52:00,41.2,37.0,17.72,ENE,71,0.0,0.0,85,0.00,,FEW085,0.00,VWS V14.01,2013-04-27 11:52:00,
2013-04-27 07:53:00,41.2,37.0,17.72,ENE,71,0.0,0.0,85,0.00,,FEW085,0.00,VWS V14.01,2013-04-27 11:53:00,
2013-04-27 07:54:00,41.2,36.7,17.72,ENE,71,0.0,0.0,84,0.00,,FEW085,0.00,VWS V14.01,2013-04-27 11:54:00,
2013-04-27 07:55:00,41.4,36.9,17.72,ENE,71,0.0,0.0,84,0.00,,FEW085,0.00,VWS V14.01,2013-04-27 11:55:00,
2013-04-27 07:56:00,41.5,37.1,17.72,ENE,71,0.0,0.0,84,0.00,,CLR,0.00,VWS V14.01,2013-04-27 11:56:00,
2013-04-27 07:57:00,41.5,37.1,17.72,ENE,71,0.0,0.0,84,0.00,,FEW085,0.00,VWS V14.01,2013-04-27 11:57:00,
2013-04-27 07:58:00,41.7,37.0,17.72,ENE,71,0.0,0.0,83,0.00,,FEW085,0.00,VWS V14.01,2013-04-27 11:58:00,
2013-04-27 07:59:00,41.9,37.1,17.72,ENE,71,0.0,0.0,83,0.00,,FEW085,0.00,VWS V14.01,2013-04-27 11:59:00,
2013-04-27 08:00:00,41.9,37.1,17.72,ENE,71,0.0,0.0,83,0.00,,FEW085,0.00,VWS V14.01,2013-04-27 12:00:00,
2013-04-27 08:01:00,42.1,37.3,17.72,East,82,0.0,0.0,83,0.00,,CLR,0.00,VWS V14.01,2013-04-27 12:01:00,
2013-04-27 08:02:00,42.3,37.2,17.72,ENE,72,0.0,0.0,82,0.00,,FEW085,0.00,VWS V14.01,2013-04-27 12:02:00,
2013-04-27 08:03:00,42.3,37.2,17.72,East,84,0.0,0.0,82,0.00,,FEW085,0.00,VWS V14.01,2013-04-27 12:03:00,
2013-04-27 08:04:00,42.4,37.0,17.72,East,88,0.0,0.0,81,0.00,,FEW085,0.00,VWS V14.01,2013-04-27 12:04:00,
2013-04-27 08:05:00,42.4,37.0,17.72,East,88,0.0,0.0,81,0.00,,FEW085,0.00,VWS V14.01,2013-04-27 12:05:00,
2013-04-27 08:06:00,42.8,37.1,17.72,NNE,28,0.0,0.0,80,0.00,,CLR,0.00,VWS V14.01,2013-04-27 12:06:00,
2013-04-27 08:07:00,42.8,36.8,17.72,NNE,28,0.0,0.0,79,0.00,,FEW085,0.00,VWS V14.01,2013-04-27 12:07:00,
2013-04-27 08:08:00,43.0,36.9,17.72,NNE,28,0.0,0.0,79,0.00,,FEW085,0.00,VWS V14.01,2013-04-27 12:08:00,
2013-04-27 08:09:00,43.2,36.8,17.72,NNE,28,0.0,0.0,78,0.00,,FEW085,0.00,VWS V14.01,2013-04-27 12:09:00,
2013-04-27 08:10:00,43.2,36.8,17.72,East,87,0.0,3.1,78,0.00,,FEW085,0.00,VWS V14.01,2013-04-27 12:10:00,
2013-04-27 08:11:00,43.5,36.8,17.72,SE,130,4.5,4.5,77,0.00,,CLR,0.00,VWS V14.01,2013-04-27 12:11:00,
2013-04-27 08:12:00,43.5,36.8,17.72,ESE,104,0.0,2.2,77,0.00,,FEW085,0.00,VWS V14.01,2013-04-27 12:12:00,
2013-04-27 08:13:00,43.5,36.8,17.72,East,97,0.0,0.0,77,0.00,,FEW085,0.00,VWS V14.01,2013-04-27 12:13:00,
2013-04-27 08:14:00,43.7,36.6,17.72,NNE,24,0.0,0.0,76,0.00,,FEW085,0.00,VWS V14.01,2013-04-27 12:14:00,
2013-04-27 08:15:00,43.9,36.8,17.72,NE,48,0.0,0.0,76,0.00,,FEW085,0.00,VWS V14.01,2013-04-27 12:15:00,
2013-04-27 08:16:00,44.1,37.0,17.72,East,82,0.0,0.0,76,0.00,,CLR,0.00,VWS V14.01,2013-04-27 12:16:00,
2013-04-27 08:17:00,44.2,37.2,17.72,East,86,0.0,0.0,76,0.00,,FEW085,0.00,VWS V14.01,2013-04-27 12:17:00,
2013-04-27 08:18:00,44.2,36.8,17.72,NE,54,0.0,0.0,75,0.00,,FEW085,0.00,VWS V14.01,2013-04-27 12:18:00,
2013-04-27 08:19:00,44.4,37.0,17.72,ENE,77,0.0,0.0,75,0.00,,FEW085,0.00,VWS V14.01,2013-04-27 12:19:00,
2013-04-27 08:20:00,44.6,36.8,17.72,NNE,26,0.0,0.0,74,0.00,,FEW085,0.00,VWS V14.01,2013-04-27 12:20:00,
2013-04-27 08:21:00,44.8,36.7,17.72,NE,54,7.2,7.2,73,0.00,,CLR,0.00,VWS V14.01,2013-04-27 12:21:00,
2013-04-27 08:22:00,44.8,36.7,17.72,ESE,103,0.0,3.6,73,0.00,,FEW085,0.00,VWS V14.01,2013-04-27 12:22:00,
2013-04-27 08:23:00,45.0,36.5,17.72,ESE,108,0.0,0.0,72,0.00,,FEW085,0.00,VWS V14.01,2013-04-27 12:23:00,
2013-04-27 08:24:00,45.1,36.7,17.72,ESE,108,0.0,0.0,72,0.00,,FEW085,0.00,VWS V14.01,2013-04-27 12:24:00,
2013-04-27 08:25:00,45.1,36.3,17.72,NE,54,0.0,0.0,71,0.00,,FEW085,0.00,VWS V14.01,2013-04-27 12:25:00,
2013-04-27 08:26:00,45.3,36.5,17.72,NNE,15,0.0,0.0,71,0.00,,CLR,0.00,VWS V14.01,2013-04-27 12:26:00,
2013-04-27 08:27:00,45.3,36.5,17.72,NE,39,8.1,8.1,71,0.00,,FEW085,0.00,VWS V14.01,2013-04-27 12:27:00,
2013-04-27 08:28:00,45.5,36.7,17.72,NNW,333,0.0,4.0,71,0.00,,FEW085,0.00,VWS V14.01,2013-04-27 12:28:00,
2013-04-27 08:29:00,45.5,36.7,17.72,North,357,0.0,2.2,71,0.00,,FEW085,0.00,VWS V14.01,2013-04-27 12:29:00,
2013-04-27 08:30:00,45.7,36.5,17.72,NNE,33,0.0,0.0,70,0.00,,FEW085,0.00,VWS V14.01,2013-04-27 12:30:00,
2013-04-27 08:31:00,45.9,36.6,17.72,ENE,61,0.0,0.0,70,0.00,,CLR,0.00,VWS V14.01,2013-04-27 12:31:00,
2013-04-27 08:32:00,45.9,36.3,17.72,ESE,111,0.0,0.0,69,0.00,,FEW085,0.00,VWS V14.01,2013-04-27 12:32:00,
2013-04-27 08:33:00,46.0,36.5,17.72,ENE,77,0.0,0.0,69,0.00,,FEW085,0.00,VWS V14.01,2013-04-27 12:33:00,
2013-04-27 08:34:00,46.0,36.1,17.72,North,353,0.0,0.0,68,0.00,,FEW085,0.00,VWS V14.01,2013-04-27 12:34:00,
2013-04-27 08:35:00,46.2,36.3,17.72,NE,43,0.0,0.0,68,0.00,,FEW085,0.00,VWS V14.01,2013-04-27 12:35:00,
2013-04-27 08:36:00,46.2,35.9,17.72,NNE,29,0.0,0.0,67,0.00,,CLR,0.00,VWS V14.01,2013-04-27 12:36:00,
2013-04-27 08:37:00,46.4,35.7,17.72,NNE,29,0.0,0.0,66,0.00,,FEW085,0.00,VWS V14.01,2013-04-27 12:37:00,
2013-04-27 08:38:00,46.4,35.7,17.72,East,85,0.0,0.0,66,0.00,,FEW085,0.00,VWS V14.01,2013-04-27 12:38:00,
2013-04-27 08:39:00,46.6,35.5,17.72,ESE,102,0.0,0.0,65,0.00,,FEW085,0.00,VWS V14.01,2013-04-27 12:39:00,
2013-04-27 08:40:00,46.6,35.5,17.72,NNE,16,6.3,6.3,65,0.00,,FEW085,0.00,VWS V14.01,2013-04-27 12:40:00,
2013-04-27 08:41:00,46.8,35.2,17.72,East,100,7.2,7.2,64,0.00,,CLR,0.00,VWS V14.01,2013-04-27 12:41:00,
2013-04-27 08:42:00,46.8,35.2,17.72,SE,127,0.0,3.6,64,0.00,,FEW085,0.00,VWS V14.01,2013-04-27 12:42:00,
2013-04-27 08:43:00,46.8,35.2,17.72,East,84,0.0,4.0,64,0.00,,FEW085,0.00,VWS V14.01,2013-04-27 12:43:00,
2013-04-27 08:44:00,46.9,35.0,17.72,East,84,0.0,0.0,63,0.00,,FEW085,0.00,VWS V14.01,2013-04-27 12:44:00,
2013-04-27 08:45:00,46.9,35.0,17.72,SE,129,0.0,0.0,63,0.00,,FEW085,0.00,VWS V14.01,2013-04-27 12:45:00,
2013-04-27 08:46:00,46.9,35.0,17.72,East,81,8.1,8.1,63,0.00,,CLR,0.00,VWS V14.01,2013-04-27 12:46:00,
2013-04-27 08:47:00,47.1,34.8,17.72,East,82,7.2,7.2,62,0.00,,FEW085,0.00,VWS V14.01,2013-04-27 12:47:00,
2013-04-27 08:48:00,47.1,34.8,17.72,ESE,113,0.0,4.0,62,0.00,,FEW085,0.00,VWS V14.01,2013-04-27 12:48:00,
2013-04-27 08:49:00,47.1,34.8,17.72,ESE,113,0.0,0.0,62,0.00,,FEW085,0.00,VWS V14.01,2013-04-27 12:49:00,
2013-04-27 08:50:00,47.1,34.8,17.72,East,101,0.0,0.0,62,0.00,,FEW085,0.00,VWS V14.01,2013-04-27 12:50:00,
2013-04-27 08:51:00,47.3,34.5,17.72,ENE,62,0.0,0.0,61,0.00,,CLR,0.00,VWS V14.01,2013-04-27 12:51:00,
2013-04-27 08:52:00,47.3,34.5,17.72,ENE,70,0.0,0.0,61,0.00,,FEW085,0.00,VWS V14.01,2013-04-27 12:52:00,
2013-04-27 08:53:00,47.3,34.1,17.72,East,99,0.0,0.0,60,0.00,,FEW085,0.00,VWS V14.01,2013-04-27 12:53:00,
2013-04-27 08:54:00,47.5,34.3,17.72,SE,129,0.0,2.7,60,0.00,,FEW085,0.00,VWS V14.01,2013-04-27 12:54:00,
2013-04-27 08:55:00,47.5,34.3,17.72,SE,136,0.0,0.0,60,0.00,,FEW085,0.00,VWS V14.01,2013-04-27 12:55:00,
2013-04-27 08:56:00,47.7,34.0,17.72,ENE,76,0.0,0.0,59,0.00,,CLR,0.00,VWS V14.01,2013-04-27 12:56:00,
2013-04-27 08:57:00,47.8,34.2,17.72,ESE,117,0.0,0.0,59,0.00,,FEW085,0.00,VWS V14.01,2013-04-27 12:57:00,
2013-04-27 08:58:00,47.8,34.2,17.72,ENE,74,0.0,3.1,59,0.00,,FEW085,0.00,VWS V14.01,2013-04-27 12:58:00,
2013-04-27 08:59:00,48.0,34.4,17.72,ENE,66,8.1,8.1,59,0.00,,FEW085,0.00,VWS V14.01,2013-04-27 12:59:00,
2013-04-27 09:00:00,48.4,34.3,17.72,NE,48,0.0,4.0,58,0.00,,FEW085,0.00,VWS V14.01,2013-04-27 13:00:00,
2013-04-27 09:01:00,48.6,34.5,17.72,ESE,113,0.0,0.0,58,0.00,,CLR,0.00,VWS V14.01,2013-04-27 13:01:00,
2013-04-27 09:02:00,48.7,34.6,17.72,ESE,111,0.0,0.0,58,0.00,,FEW085,0.00,VWS V14.01,2013-04-27 13:02:00,
2013-04-27 09:03:00,48.7,34.2,17.72,SE,131,0.0,0.0,57,0.00,,FEW085,0.00,VWS V14.01,2013-04-27 13:03:00,
2013-04-27 09:04:00,48.9,34.4,17.72,East,91,0.0,0.0,57,0.00,,FEW085,0.00,VWS V14.01,2013-04-27 13:04:00,
2013-04-27 09:05:00,49.1,34.1,17.72,South,175,0.0,0.0,56,0.00,,FEW085,0.00,VWS V14.01,2013-04-27 13:05:00,
2013-04-27 09:06:00,49.5,34.4,17.72,SSE,159,0.0,2.2,56,0.00,,CLR,0.00,VWS V14.01,2013-04-27 13:06:00,
2013-04-27 09:07:00,49.6,34.2,17.72,ESE,109,0.0,2.2,55,0.00,,FEW085,0.00,VWS V14.01,2013-04-27 13:07:00,
2013-04-27 09:08:00,49.6,34.2,17.72,East,89,0.0,0.0,55,0.00,,FEW085,0.00,VWS V14.01,2013-04-27 13:08:00,
2013-04-27 09:09:00,50.0,34.0,17.72,South,170,0.0,3.6,54,0.00,,FEW085,0.00,VWS V14.01,2013-04-27 13:09:00,
2013-04-27 09:10:00,50.0,34.0,17.72,WSW,253,0.0,0.0,54,0.00,,FEW085,0.00,VWS V14.01,2013-04-27 13:10:00,
2013-04-27 09:11:00,50.2,33.2,17.72,SE,146,6.3,6.3,52,0.00,,CLR,0.00,VWS V14.01,2013-04-27 13:11:00,
2013-04-27 09:12:00,50.2,33.2,17.72,SE,141,0.0,4.0,52,0.00,,FEW085,0.00,VWS V14.01,2013-04-27 13:12:00,
2013-04-27 09:13:00,50.4,33.4,17.72,ESE,115,0.0,0.0,52,0.00,,FEW085,0.00,VWS V14.01,2013-04-27 13:13:00,
2013-04-27 09:14:00,50.5,33.6,17.72,SW,216,0.0,0.0,52,0.00,,FEW085,0.00,VWS V14.01,2013-04-27 13:14:00,
2013-04-27 09:15:00,50.7,33.3,17.72,SW,216,0.0,0.0,51,0.00,,FEW085,0.00,VWS V14.01,2013-04-27 13:15:00,
2013-04-27 09:16:00,50.9,33.4,17.72,East,97,0.0,3.6,51,0.00,,CLR,0.00,VWS V14.01,2013-04-27 13:16:00,
2013-04-27 09:17:00,50.9,33.4,17.72,ESE,120,0.0,3.6,51,0.00,,FEW085,0.00,VWS V14.01,2013-04-27 13:17:00,
2013-04-27 09:18:00,51.3,33.8,17.72,NNE,22,5.4,5.4,51,0.00,,FEW085,0.00,VWS V14.01,2013-04-27 13:18:00,
2013-04-27 09:19:00,51.3,33.8,17.72,NE,47,5.4,5.4,51,0.00,,FEW085,0.00,VWS V14.01,2013-04-27 13:19:00,
2013-04-27 09:20:00,51.6,34.1,17.72,NNE,31,0.0,3.1,51,0.00,,FEW085,0.00,VWS V14.01,2013-04-27 13:20:00,
2013-04-27 09:21:00,51.6,33.6,17.72,NE,49,0.0,0.0,50,0.00,,CLR,0.00,VWS V14.01,2013-04-27 13:21:00,
2013-04-27 09:22:00,51.6,34.1,17.72,SW,220,0.0,0.0,51,0.00,,FEW085,0.00,VWS V14.01,2013-04-27 13:22:00,
2013-04-27 09:23:00,51.8,33.3,17.72,SSW,209,0.0,0.0,49,0.00,,FEW085,0.00,VWS V14.01,2013-04-27 13:23:00,
2013-04-27 09:24:00,51.8,33.3,17.72,SW,219,0.0,0.0,49,0.00,,FEW085,0.00,VWS V14.01,2013-04-27 13:24:00,
2013-04-27 09:25:00,52.2,33.6,17.72,SE,136,0.0,0.0,49,0.00,,FEW085,0.00,VWS V14.01,2013-04-27 13:25:00,
2013-04-27 09:26:00,52.3,34.3,17.72,WSW,238,0.0,0.0,50,0.00,,CLR,0.00,VWS V14.01,2013-04-27 13:26:00,
2013-04-27 09:27:00,52.3,33.8,17.72,WSW,244,0.0,0.0,49,0.00,,FEW085,0.00,VWS V14.01,2013-04-27 13:27:00,
2013-04-27 09:28:00,52.5,33.4,17.72,SSE,159,0.0,0.0,48,0.00,,FEW085,0.00,VWS V14.01,2013-04-27 13:28:00,
2013-04-27 09:29:00,52.7,33.6,17.72,SSE,165,0.0,0.0,48,0.00,,FEW085,0.00,VWS V14.01,2013-04-27 13:29:00,
2013-04-27 09:30:00,52.7,33.6,17.72,East,82,0.0,0.0,48,0.00,,FEW085,0.00,VWS V14.01,2013-04-27 13:30:00,
2013-04-27 09:31:00,52.7,33.6,17.72,East,95,4.5,4.5,48,0.00,,CLR,0.00,VWS V14.01,2013-04-27 13:31:00,
2013-04-27 09:32:00,52.7,33.6,17.72,South,172,0.0,3.1,48,0.00,,FEW085,0.00,VWS V14.01,2013-04-27 13:32:00,
2013-04-27 09:33:00,52.9,33.7,17.72,East,99,6.3,6.3,48,0.00,,FEW085,0.00,VWS V14.01,2013-04-27 13:33:00,
2013-04-27 09:34:00,52.9,33.7,17.72,NE,42,0.0,3.6,48,0.00,,FEW085,0.00,VWS V14.01,2013-04-27 13:34:00,
2013-04-27 09:35:00,52.9,33.7,17.72,SE,142,0.0,0.0,48,0.00,,FEW085,0.00,VWS V14.01,2013-04-27 13:35:00,
2013-04-27 09:36:00,53.1,33.4,17.72,SE,139,0.0,0.0,47,0.00,,CLR,0.00,VWS V14.01,2013-04-27 13:36:00,
2013-04-27 09:37:00,53.1,33.4,17.72,SE,137,0.0,0.0,47,0.00,,FEW085,0.00,VWS V14.01,2013-04-27 13:37:00,
2013-04-27 09:38:00,53.1,33.4,17.72,WSW,250,0.0,0.0,47,0.00,,FEW085,0.00,VWS V14.01,2013-04-27 13:38:00,
2013-04-27 09:39:00,53.1,33.4,17.72,SSE,149,0.0,3.1,47,0.00,,FEW085,0.00,VWS V14.01,2013-04-27 13:39:00,
2013-04-27 09:40:00,53.2,33.5,17.72,NE,41,0.0,3.1,47,0.00,,FEW085,0.00,VWS V14.01,2013-04-27 13:40:00,
2013-04-27 09:41:00,53.4,34.2,17.72,SSE,155,0.0,0.0,48,0.00,,CLR,0.00,VWS V14.01,2013-04-27 13:41:00,
2013-04-27 09:42:00,53.4,34.2,17.72,ESE,103,0.0,0.0,48,0.00,,FEW085,0.00,VWS V14.01,2013-04-27 13:42:00,
2013-04-27 09:43:00,53.6,33.9,17.72,ENE,63,5.4,5.4,47,0.00,,FEW085,0.00,VWS V14.01,2013-04-27 13:43:00,
2013-04-27 09:44:00,53.8,34.0,17.72,ENE,62,8.1,8.1,47,0.00,,FEW085,0.00,VWS V14.01,2013-04-27 13:44:00,
2013-04-27 09:45:00,53.8,34.0,17.72,East,87,8.1,8.1,47,0.00,,FEW085,0.00,VWS V14.01,2013-04-27 13:45:00,
2013-04-27 09:46:00,54.0,34.2,17.72,South,187,0.0,4.0,47,0.00,,FEW085,0.00,VWS V14.01,2013-04-27 13:46:00,
2013-04-27 09:47:00,54.0,34.2,17.72,SSE,157,0.0,0.0,47,0.00,,FEW085,0.00,VWS V14.01,2013-04-27 13:47:00,
2013-04-27 09:48:00,54.1,34.4,17.72,ENE,71,0.0,0.0,47,0.00,,CLR,0.00,VWS V14.01,2013-04-27 13:48:00,
2013-04-27 09:49:00,54.1,34.4,17.72,ENE,62,0.0,3.6,47,0.00,,FEW085,0.00,VWS V14.01,2013-04-27 13:49:00,
2013-04-27 09:50:00,54.3,34.0,17.72,ENE,67,0.0,0.0,46,0.00,,FEW085,0.00,VWS V14.01,2013-04-27 13:50:00,
2013-04-27 09:51:00,54.3,34.0,17.72,ENE,75,0.0,0.0,46,0.00,,FEW085,0.00,VWS V14.01,2013-04-27 13:51:00,
2013-04-27 09:52:00,54.5,33.6,17.72,ENE,72,0.0,0.0,45,0.00,,FEW085,0.00,VWS V14.01,2013-04-27 13:52:00,
2013-04-27 09:53:00,54.5,34.2,17.72,NNE,29,0.0,0.0,46,0.00,,CLR,0.00,VWS V14.01,2013-04-27 13:53:00,
2013-04-27 09:54:00,54.5,34.2,17.72,ESE,112,0.0,0.0,46,0.00,,FEW085,0.00,VWS V14.01,2013-04-27 13:54:00,
2013-04-27 09:55:00,54.7,34.3,17.72,East,95,4.5,4.5,46,0.00,,FEW085,0.00,VWS V14.01,2013-04-27 13:55:00,
2013-04-27 09:56:00,54.7,34.3,17.72,ESE,106,5.4,5.4,46,0.00,,FEW085,0.00,VWS V14.01,2013-04-27 13:56:00,
2013-04-27 09:57:00,54.7,34.3,17.72,East,82,4.5,4.5,46,0.00,,FEW085,0.00,VWS V14.01,2013-04-27 13:57:00,
2013-04-27 09:58:00,54.7,33.8,17.72,NE,35,0.0,2.7,45,0.00,,CLR,0.00,VWS V14.01,2013-04-27 13:58:00,
2013-04-27 09:59:00,54.7,33.8,17.72,ENE,62,0.0,2.7,45,0.00,,FEW085,0.00,VWS V14.01,2013-04-27 13:59:00,
2013-04-27 10:00:00,54.9,34.5,17.72,North,7,0.0,0.0,46,0.00,,FEW085,0.00,VWS V14.01,2013-04-27 14:00:00,
2013-04-27 10:01:00,55.0,34.7,17.72,East,95,0.0,0.0,46,0.00,,FEW085,0.00,VWS V14.01,2013-04-27 14:01:00,
2013-04-27 10:02:00,55.4,35.0,17.72,East,81,0.0,0.0,46,0.00,,FEW085,0.00,VWS V14.01,2013-04-27 14:02:00,
2013-04-27 10:03:00,55.8,34.8,17.72,NE,45,0.0,0.0,45,0.00,,CLR,0.00,VWS V14.01,2013-04-27 14:03:00,
2013-04-27 10:04:00,55.8,34.8,17.72,NE,42,0.0,0.0,45,0.00,,FEW085,0.00,VWS V14.01,2013-04-27 14:04:00,
2013-04-27 10:05:00,55.9,34.9,17.72,SSE,148,0.0,0.0,45,0.00,,FEW085,0.00,VWS V14.01,2013-04-27 14:05:00,
2013-04-27 10:06:00,56.1,34.5,17.72,South,182,0.0,0.0,44,0.00,,FEW085,0.00,VWS V14.01,2013-04-27 14:06:00,
2013-04-27 10:07:00,56.1,34.5,17.72,SSW,210,0.0,0.0,44,0.00,,FEW085,0.00,VWS V14.01,2013-04-27 14:07:00,
2013-04-27 10:08:00,56.1,34.5,17.72,South,174,4.5,4.5,44,0.00,,CLR,0.00,VWS V14.01,2013-04-27 14:08:00,
2013-04-27 10:09:00,56.3,34.1,17.72,SSE,153,7.2,7.2,43,0.00,,FEW085,0.00,VWS V14.01,2013-04-27 14:09:00,
2013-04-27 10:10:00,56.3,33.5,17.72,ENE,77,8.1,8.1,42,0.00,,FEW085,0.00,VWS V14.01,2013-04-27 14:10:00,
2013-04-27 10:11:00,56.3,34.1,17.72,SSE,160,5.4,5.4,43,0.00,,FEW085,0.00,VWS V14.01,2013-04-27 14:11:00,
2013-04-27 10:12:00,56.5,34.3,17.72,South,184,0.0,2.7,43,0.00,,FEW085,0.00,VWS V14.01,2013-04-27 14:12:00,
2013-04-27 10:13:00,56.5,33.7,17.72,WSW,250,7.2,7.2,42,0.00,,CLR,0.00,VWS V14.01,2013-04-27 14:13:00,
2013-04-27 10:14:00,56.5,33.1,17.72,East,94,0.0,3.6,41,0.00,,FEW085,0.00,VWS V14.01,2013-04-27 14:14:00,
2013-04-27 10:15:00,56.5,33.1,17.72,SSE,150,7.2,7.2,41,0.00,,FEW085,0.00,VWS V14.01,2013-04-27 14:15:00,
2013-04-27 10:16:00,56.5,33.1,17.72,SW,230,0.0,3.6,41,0.00,,FEW085,0.00,VWS V14.01,2013-04-27 14:16:00,
2013-04-27 10:17:00,56.5,33.1,17.72,East,80,0.0,0.0,41,0.00,,FEW085,0.00,VWS V14.01,2013-04-27 14:17:00,
2013-04-27 10:18:00,56.5,33.7,17.72,ESE,108,7.2,7.2,42,0.00,,CLR,0.00,VWS V14.01,2013-04-27 14:18:00,
2013-04-27 10:19:00,56.5,33.7,17.72,SE,137,4.5,4.5,42,0.00,,FEW085,0.00,VWS V14.01,2013-04-27 14:19:00,
2013-04-27 10:20:00,56.7,33.8,17.72,SE,136,5.4,5.4,42,0.00,,FEW085,0.00,VWS V14.01,2013-04-27 14:20:00,
2013-04-27 10:21:00,56.7,33.8,17.72,SSW,205,0.0,2.7,42,0.00,,FEW085,0.00,VWS V14.01,2013-04-27 14:21:00,
2013-04-27 10:22:00,56.8,33.4,17.72,SSW,202,0.0,0.0,41,0.00,,FEW085,0.00,VWS V14.01,2013-04-27 14:22:00,
2013-04-27 10:23:00,57.0,33.0,17.72,SSW,207,0.0,0.0,40,0.00,,CLR,0.00,VWS V14.01,2013-04-27 14:23:00,
2013-04-27 10:24:00,57.0,33.0,17.72,West,268,0.0,2.7,40,0.00,,FEW085,0.00,VWS V14.01,2013-04-27 14:24:00,
2013-04-27 10:25:00,57.0,33.0,17.72,West,279,4.5,4.5,40,0.00,,FEW085,0.00,VWS V14.01,2013-04-27 14:25:00,
2013-04-27 10:26:00,57.0,33.0,17.72,SW,222,4.5,4.5,40,0.00,,FEW085,0.00,VWS V14.01,2013-04-27 14:26:00,
2013-04-27 10:27:00,57.0,32.3,17.72,SW,224,4.5,4.5,39,0.00,,FEW085,0.00,VWS V14.01,2013-04-27 14:27:00,
2013-04-27 10:28:00,56.8,32.8,17.72,ENE,68,7.2,7.2,40,0.00,,CLR,0.00,VWS V14.01,2013-04-27 14:28:00,
2013-04-27 10:29:00,56.8,33.4,17.72,ESE,123,7.2,7.2,41,0.00,,FEW085,0.00,VWS V14.01,2013-04-27 14:29:00,
2013-04-27 10:30:00,57.0,33.6,17.72,East,84,0.0,3.6,41,0.00,,FEW085,0.00,VWS V14.01,2013-04-27 14:30:00,
2013-04-27 10:31:00,57.2,33.7,17.72,ENE,76,0.0,3.1,41,0.00,,FEW085,0.00,VWS V14.01,2013-04-27 14:31:00,
2013-04-27 10:32:00,57.2,33.7,17.72,NW,318,0.0,0.0,41,0.00,,FEW085,0.00,VWS V14.01,2013-04-27 14:32:00,
2013-04-27 10:33:00,57.4,34.5,17.72,WNW,295,0.0,0.0,42,0.00,,CLR,0.00,VWS V14.01,2013-04-27 14:33:00,
2013-04-27 10:34:00,57.6,34.1,17.72,WSW,257,0.0,0.0,41,0.00,,FEW085,0.00,VWS V14.01,2013-04-27 14:34:00,
2013-04-27 10:35:00,57.6,32.8,17.72,SSW,197,0.0,0.0,39,0.00,,FEW085,0.00,VWS V14.01,2013-04-27 14:35:00,
2013-04-27 10:36:00,57.6,32.8,17.72,SE,127,0.0,0.0,39,0.00,,FEW085,0.00,VWS V14.01,2013-04-27 14:36:00,
2013-04-27 10:37:00,57.7,33.0,17.72,ESE,109,0.0,0.0,39,0.00,,FEW085,0.00,VWS V14.01,2013-04-27 14:37:00,
2013-04-27 10:38:00,57.7,33.0,17.72,ESE,106,0.0,0.0,39,0.00,,CLR,0.00,VWS V14.01,2013-04-27 14:38:00,
2013-04-27 10:39:00,57.7,33.0,17.72,SSE,166,0.0,0.0,39,0.00,,FEW085,0.00,VWS V14.01,2013-04-27 14:39:00,
2013-04-27 10:40:00,57.7,33.0,17.72,ESE,113,7.2,7.2,39,0.00,,FEW085,0.00,VWS V14.01,2013-04-27 14:40:00,
2013-04-27 10:41:00,57.9,33.1,17.72,SSE,166,6.3,6.3,39,0.00,,FEW085,0.00,VWS V14.01,2013-04-27 14:41:00,
2013-04-27 10:42:00,57.9,33.1,17.72,SSE,161,0.0,3.1,39,0.00,,FEW085,0.00,VWS V14.01,2013-04-27 14:42:00,
2013-04-27 10:43:00,58.1,32.7,17.72,SSW,193,0.0,0.0,38,0.00,,CLR,0.00,VWS V14.01,2013-04-27 14:43:00,
2013-04-27 10:44:00,58.1,33.3,17.72,ESE,123,0.0,0.0,39,0.00,,FEW085,0.00,VWS V14.01,2013-04-27 14:44:00,
2013-04-27 10:45:00,58.3,33.5,17.72,SSE,151,0.0,0.0,39,0.00,,FEW085,0.00,VWS V14.01,2013-04-27 14:45:00,
2013-04-27 10:46:00,58.3,33.5,17.72,ESE,107,0.0,0.0,39,0.00,,FEW085,0.00,VWS V14.01,2013-04-27 14:46:00,
2013-04-27 10:47:00,58.5,33.6,17.72,ENE,75,5.4,5.4,39,0.00,,FEW085,0.00,VWS V14.01,2013-04-27 14:47:00,
2013-04-27 10:48:00,58.5,33.6,17.72,East,96,6.3,6.3,39,0.00,,CLR,0.00,VWS V14.01,2013-04-27 14:48:00,
2013-04-27 10:49:00,58.5,33.6,17.72,SE,142,0.0,4.0,39,0.00,,FEW085,0.00,VWS V14.01,2013-04-27 14:49:00,
2013-04-27 10:50:00,58.5,33.6,17.72,ESE,117,0.0,3.1,39,0.00,,FEW085,0.00,VWS V14.01,2013-04-27 14:50:00,
2013-04-27 10:51:00,58.3,33.5,17.72,ESE,115,0.0,0.0,39,0.00,,FEW085,0.00,VWS V14.01,2013-04-27 14:51:00,
2013-04-27 10:52:00,58.3,33.5,17.72,South,181,0.0,0.0,39,0.00,,FEW085,0.00,VWS V14.01,2013-04-27 14:52:00,
2013-04-27 10:53:00,58.3,32.2,17.72,SSW,213,0.0,0.0,37,0.00,,CLR,0.00,VWS V14.01,2013-04-27 14:53:00,
2013-04-27 10:54:00,58.1,32.0,17.72,SSW,213,0.0,0.0,37,0.00,,FEW085,0.00,VWS V14.01,2013-04-27 14:54:00,
2013-04-27 10:55:00,58.1,32.0,17.72,ENE,62,0.0,0.0,37,0.00,,FEW085,0.00,VWS V14.01,2013-04-27 14:55:00,
2013-04-27 10:56:00,57.9,31.8,17.72,NNE,27,0.0,0.0,37,0.00,,FEW085,0.00,VWS V14.01,2013-04-27 14:56:00,
2013-04-27 10:57:00,57.9,31.8,17.72,WSW,248,0.0,0.0,37,0.00,,FEW085,0.00,VWS V14.01,2013-04-27 14:57:00,
2013-04-27 10:58:00,57.7,31.7,17.72,South,184,0.0,0.0,37,0.00,,CLR,0.00,VWS V14.01,2013-04-27 14:58:00,
2013-04-27 10:59:00,57.7,31.7,17.72,WNW,301,0.0,0.0,37,0.00,,FEW085,0.00,VWS V14.01,2013-04-27 14:59:00,
2013-04-27 11:00:00,57.6,31.5,17.72,ESE,102,5.4,5.4,37,0.00,,FEW085,0.00,VWS V14.01,2013-04-27 15:00:00,
2013-04-27 11:01:00,57.7,32.3,17.72,SE,127,5.4,5.4,38,0.00,,FEW085,0.00,VWS V14.01,2013-04-27 15:01:00,
2013-04-27 11:02:00,57.9,32.5,17.72,SSE,150,0.0,2.7,38,0.00,,FEW085,0.00,VWS V14.01,2013-04-27 15:02:00,
2013-04-27 11:03:00,58.1,33.3,17.72,SSW,201,7.2,7.2,39,0.00,,CLR,0.00,VWS V14.01,2013-04-27 15:03:00,
2013-04-27 11:04:00,58.5,33.0,17.72,WSW,251,5.4,5.4,38,0.00,,FEW085,0.00,VWS V14.01,2013-04-27 15:04:00,
2013-04-27 11:05:00,58.5,33.0,17.72,SW,214,0.0,2.7,38,0.00,,FEW085,0.00,VWS V14.01,2013-04-27 15:05:00,
2013-04-27 11:06:00,58.5,32.3,17.72,South,181,4.5,4.5,37,0.00,,FEW085,0.00,VWS V14.01,2013-04-27 15:06:00,
2013-04-27 11:07:00,58.5,32.3,17.72,SSE,167,0.0,2.2,37,0.00,,FEW085,0.00,VWS V14.01,2013-04-27 15:07:00,
2013-04-27 11:08:00,58.5,32.3,17.72,WSW,245,0.0,0.0,37,0.00,,CLR,0.00,VWS V14.01,2013-04-27 15:08:00,
2013-04-27 11:09:00,58.5,33.0,17.72,West,261,0.0,0.0,38,0.00,,FEW085,0.00,VWS V14.01,2013-04-27 15:09:00,
2013-04-27 11:10:00,58.5,33.0,17.72,SW,215,0.0,0.0,38,0.00,,FEW085,0.00,VWS V14.01,2013-04-27 15:10:00,
2013-04-27 11:11:00,58.5,33.0,17.72,SSW,193,0.0,0.0,38,0.00,,FEW085,0.00,VWS V14.01,2013-04-27 15:11:00,
2013-04-27 11:12:00,58.6,33.1,17.72,South,176,0.0,0.0,38,0.00,,FEW085,0.00,VWS V14.01,2013-04-27 15:12:00,
2013-04-27 11:13:00,58.8,33.3,17.72,SE,125,4.5,4.5,38,0.00,,CLR,0.00,VWS V14.01,2013-04-27 15:13:00,
2013-04-27 11:14:00,59.0,32.8,17.72,South,176,0.0,3.1,37,0.00,,FEW085,0.00,VWS V14.01,2013-04-27 15:14:00,
2013-04-27 11:15:00,59.0,32.8,17.72,SE,125,0.0,0.0,37,0.00,,FEW085,0.00,VWS V14.01,2013-04-27 15:15:00,
2013-04-27 11:16:00,59.0,32.8,17.72,SE,144,0.0,2.2,37,0.00,,FEW085,0.00,VWS V14.01,2013-04-27 15:16:00,
2013-04-27 11:17:00,59.0,32.8,17.72,NW,307,0.0,2.7,37,0.00,,FEW085,0.00,VWS V14.01,2013-04-27 15:17:00,
2013-04-27 11:18:00,59.2,33.0,17.72,West,259,0.0,0.0,37,0.00,,CLR,0.00,VWS V14.01,2013-04-27 15:18:00,
2013-04-27 11:19:00,59.2,33.0,17.72,SSW,204,0.0,2.7,37,0.00,,FEW085,0.00,VWS V14.01,2013-04-27 15:19:00,
2013-04-27 11:20:00,59.2,32.3,17.72,WSW,254,0.0,2.7,36,0.00,,FEW085,0.00,VWS V14.01,2013-04-27 15:20:00,
2013-04-27 11:21:00,59.2,32.3,17.72,SW,222,0.0,2.2,36,0.00,,FEW085,0.00,VWS V14.01,2013-04-27 15:21:00,
2013-04-27 11:22:00,59.0,32.1,17.72,SE,131,0.0,2.2,36,0.00,,FEW085,0.00,VWS V14.01,2013-04-27 15:22:00,
2013-04-27 11:23:00,59.0,32.8,17.72,ESE,111,7.2,7.2,37,0.00,,CLR,0.00,VWS V14.01,2013-04-27 15:23:00,
2013-04-27 11:24:00,59.0,32.8,17.72,East,97,5.4,5.4,37,0.00,,FEW085,0.00,VWS V14.01,2013-04-27 15:24:00,
2013-04-27 11:25:00,59.0,32.8,17.72,East,83,7.2,7.2,37,0.00,,FEW085,0.00,VWS V14.01,2013-04-27 15:25:00,
2013-04-27 11:26:00,59.0,32.8,17.72,East,85,6.3,6.3,37,0.00,,FEW085,0.00,VWS V14.01,2013-04-27 15:26:00,
2013-04-27 11:27:00,58.8,32.6,17.72,East,93,0.0,3.6,37,0.00,,FEW085,0.00,VWS V14.01,2013-04-27 15:27:00,
2013-04-27 11:28:00,58.6,32.5,17.72,ESE,103,0.0,0.0,37,0.00,,CLR,0.00,VWS V14.01,2013-04-27 15:28:00,
2013-04-27 11:29:00,58.5,32.3,17.72,SSE,152,0.0,0.0,37,0.00,,FEW085,0.00,VWS V14.01,2013-04-27 15:29:00,
2013-04-27 11:30:00,58.5,32.3,17.72,West,275,5.4,5.4,37,0.00,,FEW085,0.00,VWS V14.01,2013-04-27 15:30:00,
2013-04-27 11:31:00,58.6,33.1,17.72,East,98,0.0,2.7,38,0.00,,FEW085,0.00,VWS V14.01,2013-04-27 15:31:00,
2013-04-27 11:32:00,58.6,33.1,17.72,East,79,6.3,6.3,38,0.00,,FEW085,0.00,VWS V14.01,2013-04-27 15:32:00,
2013-04-27 11:33:00,58.8,33.3,17.72,ESE,110,0.0,0.0,38,0.00,,CLR,0.00,VWS V14.01,2013-04-27 15:33:00,
2013-04-27 11:34:00,59.0,33.5,17.72,ESE,110,0.0,3.1,38,0.00,,FEW085,0.00,VWS V14.01,2013-04-27 15:34:00,
2013-04-27 11:35:00,59.2,32.3,17.72,South,179,16.1,16.1,36,0.00,,FEW085,0.00,VWS V14.01,2013-04-27 15:35:00,
2013-04-27 11:36:00,59.4,32.4,17.72,ESE,119,0.0,8.1,36,0.00,,FEW085,0.00,VWS V14.01,2013-04-27 15:36:00,
2013-04-27 11:37:00,59.4,32.4,17.72,ESE,120,0.0,0.0,36,0.00,,FEW085,0.00,VWS V14.01,2013-04-27 15:37:00,
2013-04-27 11:38:00,59.5,31.9,17.72,SW,227,9.8,9.8,35,0.00,,CLR,0.00,VWS V14.01,2013-04-27 15:38:00,
2013-04-27 11:39:00,59.4,32.4,17.72,ESE,121,0.0,4.9,36,0.00,,FEW085,0.00,VWS V14.01,2013-04-27 15:39:00,
2013-04-27 11:40:00,59.4,32.4,17.72,South,173,6.3,6.3,36,0.00,,FEW085,0.00,VWS V14.01,2013-04-27 15:40:00,
2013-04-27 11:41:00,59.2,32.3,17.72,South,170,6.3,6.3,36,0.00,,FEW085,0.00,VWS V14.01,2013-04-27 15:41:00,
2013-04-27 11:42:00,59.2,32.3,17.72,WSW,248,0.0,3.1,36,0.00,,FEW085,0.00,VWS V14.01,2013-04-27 15:42:00,
2013-04-27 11:43:00,59.2,32.3,17.72,South,169,4.5,4.5,36,0.00,,CLR,0.00,VWS V14.01,2013-04-27 15:43:00,
2013-04-27 11:44:00,59.2,32.3,17.72,South,191,5.4,5.4,36,0.00,,FEW085,0.00,VWS V14.01,2013-04-27 15:44:00,
2013-04-27 11:45:00,59.2,32.3,17.72,South,187,8.1,8.1,36,0.00,,FEW085,0.00,VWS V14.01,2013-04-27 15:45:00,
2013-04-27 11:46:00,59.2,31.6,17.72,SSW,199,0.0,4.9,35,0.00,,FEW085,0.00,VWS V14.01,2013-04-27 15:46:00,
2013-04-27 11:47:00,59.0,32.1,17.72,SSW,207,5.4,5.4,36,0.00,,FEW085,0.00,VWS V14.01,2013-04-27 15:47:00,
2013-04-27 11:48:00,58.8,32.0,17.72,East,94,7.2,7.2,36,0.00,,CLR,0.00,VWS V14.01,2013-04-27 15:48:00,
2013-04-27 11:49:00,59.0,32.8,17.72,East,97,7.2,7.2,37,0.00,,FEW085,0.00,VWS V14.01,2013-04-27 15:49:00,
2013-04-27 11:50:00,59.0,32.8,17.72,NNE,28,0.0,5.4,37,0.00,,FEW085,0.00,VWS V14.01,2013-04-27 15:50:00,
2013-04-27 11:51:00,59.2,33.0,17.72,WSW,247,0.0,0.0,37,0.00,,FEW085,0.00,VWS V14.01,2013-04-27 15:51:00,
2013-04-27 11:52:00,59.2,33.0,17.72,SSW,210,0.0,0.0,37,0.00,,FEW085,0.00,VWS V14.01,2013-04-27 15:52:00,
2013-04-27 11:53:00,59.4,33.1,17.72,SE,136,7.2,7.2,37,0.00,,CLR,0.00,VWS V14.01,2013-04-27 15:53:00,
2013-04-27 11:54:00,59.5,33.3,17.72,ESE,122,0.0,4.9,37,0.00,,FEW085,0.00,VWS V14.01,2013-04-27 15:54:00,
2013-04-27 11:55:00,59.5,32.6,17.72,ENE,75,0.0,0.0,36,0.00,,FEW085,0.00,VWS V14.01,2013-04-27 15:55:00,
2013-04-27 11:56:00,59.7,32.7,17.72,WSW,237,12.5,12.5,36,0.00,,FEW085,0.00,VWS V14.01,2013-04-27 15:56:00,
2013-04-27 11:57:00,59.7,32.0,17.72,SE,126,5.4,6.3,35,0.00,,FEW085,0.00,VWS V14.01,2013-04-27 15:57:00,
2013-04-27 11:58:00,59.7,32.7,17.72,SW,235,0.0,0.0,36,0.00,,CLR,0.00,VWS V14.01,2013-04-27 15:58:00,
2013-04-27 11:59:00,59.7,32.7,17.72,SW,226,7.2,7.2,36,0.00,,FEW085,0.00,VWS V14.01,2013-04-27 15:59:00,
2013-04-27 12:00:00,59.5,32.6,17.72,East,88,0.0,3.6,36,0.00,,FEW085,0.00,VWS V14.01,2013-04-27 16:00:00,
2013-04-27 12:01:00,59.7,32.7,17.72,East,88,5.4,5.4,36,0.00,,FEW085,0.00,VWS V14.01,2013-04-27 16:01:00,
2013-04-27 12:02:00,59.7,33.4,17.72,ESE,103,6.3,6.3,37,0.00,,FEW085,0.00,VWS V14.01,2013-04-27 16:02:00,
2013-04-27 12:03:00,59.7,33.4,17.72,ENE,64,0.0,0.0,37,0.00,,CLR,0.00,VWS V14.01,2013-04-27 16:03:00,
2013-04-27 12:04:00,59.7,33.4,17.72,SSE,148,0.0,0.0,37,0.00,,FEW085,0.00,VWS V14.01,2013-04-27 16:04:00,
2013-04-27 12:05:00,59.9,33.6,17.72,SSE,147,6.3,6.3,37,0.00,,FEW085,0.00,VWS V14.01,2013-04-27 16:05:00,
2013-04-27 12:06:00,60.1,33.8,17.72,SE,132,5.4,5.4,37,0.00,,FEW085,0.00,VWS V14.01,2013-04-27 16:06:00,
2013-04-27 12:07:00,60.3,33.2,17.72,ESE,120,9.8,9.8,36,0.00,,FEW085,0.00,VWS V14.01,2013-04-27 16:07:00,
2013-04-27 12:08:00,60.3,33.2,17.72,SSW,203,6.3,6.3,36,0.00,,CLR,0.00,VWS V14.01,2013-04-27 16:08:00,
2013-04-27 12:09:00,60.3,33.2,17.72,WSW,249,5.4,5.4,36,0.00,,FEW085,0.00,VWS V14.01,2013-04-27 16:09:00,
2013-04-27 12:10:00,60.3,33.2,17.72,SSW,200,7.2,7.2,36,0.00,,FEW085,0.00,VWS V14.01,2013-04-27 16:10:00,
2013-04-27 12:11:00,60.3,33.2,17.72,ESE,103,5.4,5.4,36,0.00,,FEW085,0.00,VWS V14.01,2013-04-27 16:11:00,
2013-04-27 12:12:00,60.4,33.4,17.72,SSE,151,7.2,7.2,36,0.00,,FEW085,0.00,VWS V14.01,2013-04-27 16:12:00,
2013-04-27 12:13:00,60.4,33.4,17.72,SW,223,6.3,6.3,36,0.00,,CLR,0.00,VWS V14.01,2013-04-27 16:13:00,
2013-04-27 12:14:00,60.4,33.4,17.72,WSW,247,8.1,8.1,36,0.00,,FEW085,0.00,VWS V14.01,2013-04-27 16:14:00,
2013-04-27 12:15:00,60.4,33.4,17.72,SSE,164,0.0,4.0,36,0.00,,FEW085,0.00,VWS V14.01,2013-04-27 16:15:00,
2013-04-27 12:16:00,60.3,33.2,17.72,NE,37,4.5,4.5,36,0.00,,FEW085,0.00,VWS V14.01,2013-04-27 16:16:00,
2013-04-27 12:17:00,60.3,33.2,17.72,SW,221,15.2,15.2,36,0.00,,FEW085,0.00,VWS V14.01,2013-04-27 16:17:00,
2013-04-27 12:18:00,60.4,33.4,17.72,SSE,160,8.1,8.1,36,0.00,,CLR,0.00,VWS V14.01,2013-04-27 16:18:00,
2013-04-27 12:19:00,60.4,33.4,17.72,SE,143,0.0,4.0,36,0.00,,FEW085,0.00,VWS V14.01,2013-04-27 16:19:00,
2013-04-27 12:20:00,60.6,32.8,17.72,WSW,249,5.4,5.4,35,0.00,,FEW085,0.00,VWS V14.01,2013-04-27 16:20:00,
2013-04-27 12:21:00,60.6,33.5,17.72,ENE,69,5.4,5.4,36,0.00,,FEW085,0.00,VWS V14.01,2013-04-27 16:21:00,
2013-04-27 12:22:00,60.6,33.5,17.72,SSE,160,0.0,3.6,36,0.00,,FEW085,0.00,VWS V14.01,2013-04-27 16:22:00,
2013-04-27 12:23:00,60.6,33.5,17.72,WSW,244,8.1,8.1,36,0.00,,CLR,0.00,VWS V14.01,2013-04-27 16:23:00,
2013-04-27 12:24:00,60.8,33.7,17.72,WSW,246,4.5,5.8,36,0.00,,FEW085,0.00,VWS V14.01,2013-04-27 16:24:00,
2013-04-27 12:25:00,61.0,33.2,17.72,SW,220,4.5,4.5,35,0.00,,FEW085,0.00,VWS V14.01,2013-04-27 16:25:00,
2013-04-27 12:26:00,61.0,33.2,17.72,SW,217,6.3,6.3,35,0.00,,FEW085,0.00,VWS V14.01,2013-04-27 16:26:00,
2013-04-27 12:27:00,61.0,33.2,17.72,SE,144,7.2,7.2,35,0.00,,FEW085,0.00,VWS V14.01,2013-04-27 16:27:00,
2013-04-27 12:28:00,61.0,33.2,17.72,East,101,0.0,2.2,35,0.00,,CLR,0.00,VWS V14.01,2013-04-27 16:28:00,
2013-04-27 12:29:00,61.0,33.2,17.72,East,100,7.2,7.2,35,0.00,,FEW085,0.00,VWS V14.01,2013-04-27 16:29:00,
2013-04-27 12:30:00,61.0,33.2,17.72,SSW,203,0.0,3.6,35,0.00,,FEW085,0.00,VWS V14.01,2013-04-27 16:30:00,
2013-04-27 12:31:00,61.0,33.2,17.72,South,187,8.1,8.1,35,0.00,,FEW085,0.00,VWS V14.01,2013-04-27 16:31:00,
2013-04-27 12:32:00,61.0,33.2,17.72,ENE,65,11.6,11.6,35,0.00,,FEW085,0.00,VWS V14.01,2013-04-27 16:32:00,
2013-04-27 12:33:00,61.0,33.2,17.72,SSE,157,0.0,0.0,35,0.00,,CLR,0.00,VWS V14.01,2013-04-27 16:33:00,
2013-04-27 12:34:00,61.0,33.2,17.72,SE,133,0.0,0.0,35,0.00,,FEW085,0.00,VWS V14.01,2013-04-27 16:34:00,
2013-04-27 12:35:00,61.0,33.2,17.72,WSW,244,7.2,7.2,35,0.00,,FEW085,0.00,VWS V14.01,2013-04-27 16:35:00,
2013-04-27 12:36:00,61.0,33.2,17.72,SSE,168,6.3,6.3,35,0.00,,FEW085,0.00,VWS V14.01,2013-04-27 16:36:00,
2013-04-27 12:37:00,61.0,33.2,17.72,SSE,160,16.6,16.6,35,0.00,,FEW085,0.00,VWS V14.01,2013-04-27 16:37:00,
2013-04-27 12:38:00,61.2,33.3,17.72,SSE,159,11.6,11.6,35,0.00,,CLR,0.00,VWS V14.01,2013-04-27 16:38:00,
2013-04-27 12:39:00,61.2,33.3,17.72,ESE,114,5.4,5.8,35,0.00,,FEW085,0.00,VWS V14.01,2013-04-27 16:39:00,
2013-04-27 12:40:00,61.3,33.5,17.72,SSW,199,8.1,8.1,35,0.00,,FEW085,0.00,VWS V14.01,2013-04-27 16:40:00,
2013-04-27 12:41:00,61.2,33.3,17.72,SW,236,5.4,5.4,35,0.00,,FEW085,0.00,VWS V14.01,2013-04-27 16:41:00,
2013-04-27 12:42:00,61.2,33.3,17.72,SW,227,5.4,5.4,35,0.00,,FEW085,0.00,VWS V14.01,2013-04-27 16:42:00,
2013-04-27 12:43:00,61.0,33.2,17.72,SSW,195,7.2,7.2,35,0.00,,CLR,0.00,VWS V14.01,2013-04-27 16:43:00,
2013-04-27 12:44:00,61.0,33.2,17.72,SE,130,6.3,6.3,35,0.00,,FEW085,0.00,VWS V14.01,2013-04-27 16:44:00,
2013-04-27 12:45:00,61.2,33.3,17.72,ESE,123,7.2,7.2,35,0.00,,FEW085,0.00,VWS V14.01,2013-04-27 16:45:00,
2013-04-27 12:46:00,61.2,33.3,17.72,WSW,239,10.7,10.7,35,0.00,,FEW085,0.00,VWS V14.01,2013-04-27 16:46:00,
2013-04-27 12:47:00,61.2,33.3,17.72,ESE,107,10.7,10.7,35,0.00,,FEW085,0.00,VWS V14.01,2013-04-27 16:47:00,
2013-04-27 12:48:00,61.0,32.4,17.72,ESE,108,16.6,16.6,34,0.00,,CLR,0.00,VWS V14.01,2013-04-27 16:48:00,
2013-04-27 12:49:00,61.0,32.4,17.72,SSE,153,8.1,8.3,34,0.00,,FEW085,0.00,VWS V14.01,2013-04-27 16:49:00,
2013-04-27 12:50:00,61.0,33.2,17.72,WNW,285,0.0,4.0,35,0.00,,FEW085,0.00,VWS V14.01,2013-04-27 16:50:00,
2013-04-27 12:51:00,61.0,33.2,17.72,SSE,148,10.7,10.7,35,0.00,,FEW085,0.00,VWS V14.01,2013-04-27 16:51:00,
2013-04-27 12:52:00,61.0,33.2,17.72,ESE,117,5.4,5.4,35,0.00,,FEW085,0.00,VWS V14.01,2013-04-27 16:52:00,
2013-04-27 12:53:00,60.8,32.3,17.72,NE,50,4.5,4.5,34,0.00,,CLR,0.00,VWS V14.01,2013-04-27 16:53:00,
2013-04-27 12:54:00,61.0,33.2,17.72,SSW,196,0.0,3.6,35,0.00,,FEW085,0.00,VWS V14.01,2013-04-27 16:54:00,
2013-04-27 12:55:00,61.0,33.2,17.72,East,101,7.2,7.2,35,0.00,,FEW085,0.00,VWS V14.01,2013-04-27 16:55:00,
2013-04-27 12:56:00,61.0,33.2,17.72,ESE,112,8.1,8.1,35,0.00,,FEW085,0.00,VWS V14.01,2013-04-27 16:56:00,
2013-04-27 12:57:00,61.0,33.2,17.72,East,89,8.1,8.1,35,0.00,,FEW085,0.00,VWS V14.01,2013-04-27 16:57:00,
2013-04-27 12:58:00,61.2,33.3,17.72,WSW,257,6.3,6.3,35,0.00,,CLR,0.00,VWS V14.01,2013-04-27 16:58:00,
2013-04-27 12:59:00,61.2,32.6,17.72,SSW,199,5.4,5.4,34,0.00,,FEW085,0.00,VWS V14.01,2013-04-27 16:59:00,
2013-04-27 13:00:00,61.2,32.6,17.72,SW,222,10.7,10.7,34,0.00,,FEW085,0.00,VWS V14.01,2013-04-27 17:00:00,
2013-04-27 13:01:00,61.2,32.6,17.72,ESE,111,5.4,5.4,34,0.00,,FEW085,0.00,VWS V14.01,2013-04-27 17:01:00,
2013-04-27 13:02:00,61.0,32.4,17.72,SSE,162,5.4,5.4,34,0.00,,FEW085,0.00,VWS V14.01,2013-04-27 17:02:00,
2013-04-27 13:03:00,60.8,32.3,17.72,SSW,201,9.8,9.8,34,0.00,,CLR,0.00,VWS V14.01,2013-04-27 17:03:00,
2013-04-27 13:04:00,60.8,33.0,17.72,SSE,148,11.6,11.6,35,0.00,,FEW085,0.00,VWS V14.01,2013-04-27 17:04:00,
2013-04-27 13:05:00,60.8,33.0,17.72,SSE,150,6.3,6.3,35,0.00,,FEW085,0.00,VWS V14.01,2013-04-27 17:05:00,
2013-04-27 13:06:00,61.0,33.2,17.72,East,85,0.0,4.0,35,0.00,,FEW085,0.00,VWS V14.01,2013-04-27 17:06:00,
2013-04-27 13:07:00,61.0,33.2,17.72,ENE,77,7.2,7.2,35,0.00,,FEW085,0.00,VWS V14.01,2013-04-27 17:07:00,
2013-04-27 13:08:00,61.2,33.3,17.72,NNE,28,0.0,2.2,35,0.00,,CLR,0.00,VWS V14.01,2013-04-27 17:08:00,
2013-04-27 13:09:00,61.2,33.3,17.72,SSE,153,16.1,16.1,35,0.00,,FEW085,0.00,VWS V14.01,2013-04-27 17:09:00,
2013-04-27 13:10:00,61.3,33.5,17.72,South,175,7.2,8.1,35,0.00,,FEW085,0.00,VWS V14.01,2013-04-27 17:10:00,
2013-04-27 13:11:00,61.5,33.6,17.72,SE,130,0.0,3.6,35,0.00,,FEW085,0.00,VWS V14.01,2013-04-27 17:11:00,
2013-04-27 13:12:00,61.5,33.6,17.72,WNW,296,0.0,3.6,35,0.00,,FEW085,0.00,VWS V14.01,2013-04-27 17:12:00,
2013-04-27 13:13:00,61.5,32.9,17.72,SSW,192,6.3,6.3,34,0.00,,CLR,0.00,VWS V14.01,2013-04-27 17:13:00,
2013-04-27 13:14:00,61.5,32.9,17.72,West,277,0.0,5.4,34,0.00,,FEW085,0.00,VWS V14.01,2013-04-27 17:14:00,
2013-04-27 13:15:00,61.5,33.6,17.72,ESE,103,6.3,6.3,35,0.00,,FEW085,0.00,VWS V14.01,2013-04-27 17:15:00,
2013-04-27 13:16:00,61.7,33.1,17.72,SSE,165,8.9,8.9,34,0.00,,FEW085,0.00,VWS V14.01,2013-04-27 17:16:00,
2013-04-27 13:17:00,61.7,33.1,17.72,SSW,198,11.6,11.6,34,0.00,,FEW085,0.00,VWS V14.01,2013-04-27 17:17:00,
2013-04-27 13:18:00,61.7,33.1,17.72,ENE,61,0.0,3.6,34,0.00,,CLR,0.00,VWS V14.01,2013-04-27 17:18:00,
2013-04-27 13:19:00,61.3,32.8,17.72,East,84,8.1,8.1,34,0.00,,FEW085,0.00,VWS V14.01,2013-04-27 17:19:00,
2013-04-27 13:20:00,61.2,32.6,17.72,ESE,109,5.4,5.4,34,0.00,,FEW085,0.00,VWS V14.01,2013-04-27 17:20:00,
2013-04-27 13:21:00,61.0,32.4,17.72,ENE,75,8.1,8.1,34,0.00,,FEW085,0.00,VWS V14.01,2013-04-27 17:21:00,
2013-04-27 13:22:00,61.0,33.2,17.72,SE,146,8.1,8.1,35,0.00,,FEW085,0.00,VWS V14.01,2013-04-27 17:22:00,
2013-04-27 13:23:00,61.0,32.4,17.72,SW,227,6.3,6.3,34,0.00,,CLR,0.00,VWS V14.01,2013-04-27 17:23:00,
2013-04-27 13:24:00,61.2,33.3,17.72,ESE,112,5.4,5.4,35,0.00,,FEW085,0.00,VWS V14.01,2013-04-27 17:24:00,
2013-04-27 13:25:00,61.2,33.3,17.72,ESE,105,7.2,7.2,35,0.00,,FEW085,0.00,VWS V14.01,2013-04-27 17:25:00,
2013-04-27 13:26:00,61.2,33.3,17.72,ENE,76,11.6,11.6,35,0.00,,FEW085,0.00,VWS V14.01,2013-04-27 17:26:00,
2013-04-27 13:27:00,61.2,33.3,17.72,ENE,69,10.7,10.7,35,0.00,,FEW085,0.00,VWS V14.01,2013-04-27 17:27:00,
2013-04-27 13:28:00,61.3,33.5,17.72,SE,124,6.3,6.3,35,0.00,,CLR,0.00,VWS V14.01,2013-04-27 17:28:00,
2013-04-27 13:29:00,61.3,33.5,17.72,NNE,22,6.3,6.3,35,0.00,,FEW085,0.00,VWS V14.01,2013-04-27 17:29:00,
2013-04-27 13:30:00,61.3,33.5,17.72,ESE,113,9.8,9.8,35,0.00,,FEW085,0.00,VWS V14.01,2013-04-27 17:30:00,
2013-04-27 13:31:00,61.3,33.5,17.72,ENE,76,7.2,7.2,35,0.00,,FEW085,0.00,VWS V14.01,2013-04-27 17:31:00,
2013-04-27 13:32:00,61.5,33.6,17.72,South,173,5.4,5.4,35,0.00,,FEW085,0.00,VWS V14.01,2013-04-27 17:32:00,
2013-04-27 13:33:00,61.5,32.9,17.72,SSE,160,9.8,9.8,34,0.00,,CLR,0.00,VWS V14.01,2013-04-27 17:33:00,
2013-04-27 13:34:00,61.3,32.8,17.72,South,175,4.5,4.9,34,0.00,,FEW085,0.00,VWS V14.01,2013-04-27 17:34:00,
2013-04-27 13:35:00,61.3,32.8,17.72,SSE,158,8.1,8.1,34,0.00,,FEW085,0.00,VWS V14.01,2013-04-27 17:35:00,
2013-04-27 13:36:00,61.3,32.8,17.72,SSE,158,0.0,4.0,34,0.00,,FEW085,0.00,VWS V14.01,2013-04-27 17:36:00,
2013-04-27 13:37:00,61.3,32.8,17.72,ESE,123,6.3,6.3,34,0.00,,FEW085,0.00,VWS V14.01,2013-04-27 17:37:00,
2013-04-27 13:38:00,61.3,32.8,17.72,ESE,112,4.5,4.5,34,0.00,,CLR,0.00,VWS V14.01,2013-04-27 17:38:00,
2013-04-27 13:39:00,61.5,32.9,17.72,WSW,247,5.4,5.4,34,0.00,,FEW085,0.00,VWS V14.01,2013-04-27 17:39:00,
2013-04-27 13:40:00,61.5,32.9,17.72,ESE,111,9.8,9.8,34,0.00,,FEW085,0.00,VWS V14.01,2013-04-27 17:40:00,
2013-04-27 13:41:00,61.5,32.9,17.72,SE,134,11.6,11.6,34,0.00,,FEW085,0.00,VWS V14.01,2013-04-27 17:41:00,
2013-04-27 13:42:00,61.5,32.9,17.72,South,191,7.2,7.2,34,0.00,,FEW085,0.00,VWS V14.01,2013-04-27 17:42:00,
2013-04-27 13:43:00,61.5,32.9,17.72,SSE,153,4.5,4.5,34,0.00,,CLR,0.00,VWS V14.01,2013-04-27 17:43:00,
2013-04-27 13:44:00,61.5,32.9,17.72,SSE,163,9.8,9.8,34,0.00,,FEW085,0.00,VWS V14.01,2013-04-27 17:44:00,
2013-04-27 13:45:00,61.5,32.9,17.72,SW,217,4.5,4.9,34,0.00,,FEW085,0.00,VWS V14.01,2013-04-27 17:45:00,
2013-04-27 13:46:00,61.5,32.9,17.72,SSE,166,8.1,8.1,34,0.00,,FEW085,0.00,VWS V14.01,2013-04-27 17:46:00,
2013-04-27 13:47:00,61.3,32.8,17.72,South,171,10.7,10.7,34,0.00,,FEW085,0.00,VWS V14.01,2013-04-27 17:47:00,
2013-04-27 13:48:00,61.3,32.8,17.72,SE,128,4.5,5.4,34,0.00,,CLR,0.00,VWS V14.01,2013-04-27 17:48:00,
2013-04-27 13:49:00,61.5,32.9,17.72,WSW,245,7.2,7.2,34,0.00,,FEW085,0.00,VWS V14.01,2013-04-27 17:49:00,
2013-04-27 13:50:00,61.5,32.9,17.72,SE,128,0.0,3.6,34,0.00,,FEW085,0.00,VWS V14.01,2013-04-27 17:50:00,
2013-04-27 13:51:00,61.7,33.8,17.72,SW,236,0.0,0.0,35,0.00,,FEW085,0.00,VWS V14.01,2013-04-27 17:51:00,
2013-04-27 13:52:00,61.9,33.2,17.72,ESE,119,0.0,5.4,34,0.00,,FEW085,0.00,VWS V14.01,2013-04-27 17:52:00,
2013-04-27 13:53:00,62.2,34.3,17.72,NW,316,5.4,5.8,35,0.00,,CLR,0.00,VWS V14.01,2013-04-27 17:53:00,
2013-04-27 13:54:00,62.2,33.5,17.72,South,191,4.5,5.8,34,0.00,,FEW085,0.00,VWS V14.01,2013-04-27 17:54:00,
2013-04-27 13:55:00,62.4,33.7,17.72,SE,130,5.4,5.8,34,0.00,,FEW085,0.00,VWS V14.01,2013-04-27 17:55:00,
2013-04-27 13:56:00,62.4,33.7,17.72,SSW,196,10.7,10.7,34,0.00,,FEW085,0.00,VWS V14.01,2013-04-27 17:56:00,
2013-04-27 13:57:00,62.4,33.7,17.72,SSE,164,0.0,5.4,34,0.00,,FEW085,0.00,VWS V14.01,2013-04-27 17:57:00,
2013-04-27 13:58:00,62.2,33.5,17.72,SSW,206,5.4,5.4,34,0.00,,CLR,0.00,VWS V14.01,2013-04-27 17:58:00,
2013-04-27 13:59:00,62.2,33.5,17.72,SSW,208,6.3,6.3,34,0.00,,FEW085,0.00,VWS V14.01,2013-04-27 17:59:00,
2013-04-27 14:00:00,62.1,33.4,17.72,SE,138,7.2,7.2,34,0.00,,FEW085,0.00,VWS V14.01,2013-04-27 18:00:00,
2013-04-27 14:01:00,61.9,33.2,17.72,SSE,149,0.0,3.6,34,0.00,,FEW085,0.00,VWS V14.01,2013-04-27 18:01:00,
2013-04-27 14:02:00,61.9,33.2,17.72,ENE,64,7.2,7.2,34,0.00,,FEW085,0.00,VWS V14.01,2013-04-27 18:02:00,
2013-04-27 14:03:00,61.7,33.1,17.72,ESE,118,6.3,6.3,34,0.00,,CLR,0.00,VWS V14.01,2013-04-27 18:03:00,
2013-04-27 14:04:00,61.7,33.1,17.72,East,99,5.4,5.4,34,0.00,,FEW085,0.00,VWS V14.01,2013-04-27 18:04:00,
2013-04-27 14:05:00,61.7,33.1,17.72,South,184,4.5,5.8,34,0.00,,FEW085,0.00,VWS V14.01,2013-04-27 18:05:00,
2013-04-27 14:06:00,61.9,33.2,17.72,SW,220,7.2,7.2,34,0.00,,FEW085,0.00,VWS V14.01,2013-04-27 18:06:00,
2013-04-27 14:07:00,61.9,33.2,17.72,SE,127,12.5,12.5,34,0.00,,FEW085,0.00,VWS V14.01,2013-04-27 18:07:00,
2013-04-27 14:08:00,61.9,33.2,17.72,SSW,196,6.3,6.3,34,0.00,,CLR,0.00,VWS V14.01,2013-04-27 18:08:00,
2013-04-27 14:09:00,61.9,33.2,17.72,ESE,108,9.8,9.8,34,0.00,,FEW085,0.00,VWS V14.01,2013-04-27 18:09:00,
2013-04-27 14:10:00,61.9,33.2,17.72,ESE,123,5.4,5.4,34,0.00,,FEW085,0.00,VWS V14.01,2013-04-27 18:10:00,
2013-04-27 14:11:00,61.7,33.1,17.72,SW,220,8.1,8.1,34,0.00,,FEW085,0.00,VWS V14.01,2013-04-27 18:11:00,
2013-04-27 14:12:00,61.7,33.1,17.72,South,177,7.2,7.2,34,0.00,,FEW085,0.00,VWS V14.01,2013-04-27 18:12:00,
2013-04-27 14:13:00,61.5,32.9,17.72,East,95,7.2,7.2,34,0.00,,CLR,0.00,VWS V14.01,2013-04-27 18:13:00,
2013-04-27 14:14:00,61.5,32.9,17.72,SE,146,6.3,6.3,34,0.00,,FEW085,0.00,VWS V14.01,2013-04-27 18:14:00,
2013-04-27 14:15:00,61.3,32.8,17.72,SSE,150,8.1,8.1,34,0.00,,FEW085,0.00,VWS V14.01,2013-04-27 18:15:00,
2013-04-27 14:16:00,61.5,32.9,17.72,SSE,160,12.5,12.5,34,0.00,,FEW085,0.00,VWS V14.01,2013-04-27 18:16:00,
2013-04-27 14:17:00,61.5,32.2,17.72,South,184,6.3,6.3,33,0.00,,FEW085,0.00,VWS V14.01,2013-04-27 18:17:00,
2013-04-27 14:18:00,61.3,32.0,17.72,ESE,122,9.8,9.8,33,0.00,,CLR,0.00,VWS V14.01,2013-04-27 18:18:00,
2013-04-27 14:19:00,61.3,32.8,17.72,West,265,5.4,5.4,34,0.00,,FEW085,0.00,VWS V14.01,2013-04-27 18:19:00,
2013-04-27 14:20:00,61.3,32.8,17.72,SSE,163,10.7,10.7,34,0.00,,FEW085,0.00,VWS V14.01,2013-04-27 18:20:00,
2013-04-27 14:21:00,61.3,32.8,17.72,SE,144,8.1,8.1,34,0.00,,FEW085,0.00,VWS V14.01,2013-04-27 18:21:00,
2013-04-27 14:22:00,61.5,32.9,17.72,SW,224,5.4,5.4,34,0.00,,FEW085,0.00,VWS V14.01,2013-04-27 18:22:00,
2013-04-27 14:23:00,61.5,32.9,17.72,SE,132,0.0,0.0,34,0.00,,CLR,0.00,VWS V14.01,2013-04-27 18:23:00,
2013-04-27 14:24:00,61.5,32.9,17.72,SW,217,0.0,0.0,34,0.00,,FEW085,0.00,VWS V14.01,2013-04-27 18:24:00,
2013-04-27 14:25:00,61.3,32.8,17.72,West,275,0.0,0.0,34,0.00,,FEW085,0.00,VWS V14.01,2013-04-27 18:25:00,
2013-04-27 14:26:00,61.3,32.8,17.72,South,176,0.0,0.0,34,0.00,,FEW085,0.00,VWS V14.01,2013-04-27 18:26:00,
2013-04-27 14:27:00,61.3,32.8,17.72,WNW,300,4.5,4.5,34,0.00,,FEW085,0.00,VWS V14.01,2013-04-27 18:27:00,
2013-04-27 14:28:00,61.3,32.8,17.72,SSE,148,7.2,7.2,34,0.00,,CLR,0.00,VWS V14.01,2013-04-27 18:28:00,
2013-04-27 14:29:00,61.3,32.8,17.72,SW,215,7.2,7.2,34,0.00,,FEW085,0.00,VWS V14.01,2013-04-27 18:29:00,
2013-04-27 14:30:00,61.0,32.4,17.72,SSE,157,0.0,3.6,34,0.00,,FEW085,0.00,VWS V14.01,2013-04-27 18:30:00,
2013-04-27 14:31:00,61.0,32.4,17.72,SW,223,6.3,6.3,34,0.00,,FEW085,0.00,VWS V14.01,2013-04-27 18:31:00,
2013-04-27 14:32:00,60.6,31.4,17.72,SSW,199,5.4,5.4,33,0.00,,FEW085,0.00,VWS V14.01,2013-04-27 18:32:00,
2013-04-27 14:33:00,60.3,30.3,17.72,SW,234,5.4,5.4,32,0.00,,CLR,0.00,VWS V14.01,2013-04-27 18:33:00,
2013-04-27 14:34:00,59.9,30.0,17.72,SW,214,7.2,7.2,32,0.00,,FEW085,0.00,VWS V14.01,2013-04-27 18:34:00,
2013-04-27 14:35:00,59.4,30.3,17.72,SE,131,8.1,8.1,33,0.00,,FEW085,0.00,VWS V14.01,2013-04-27 18:35:00,
2013-04-27 14:36:00,59.2,30.1,17.72,East,86,5.4,5.4,33,0.00,,FEW085,0.00,VWS V14.01,2013-04-27 18:36:00,
2013-04-27 14:37:00,58.8,30.5,17.72,SE,128,7.2,7.2,34,0.00,,FEW085,0.00,VWS V14.01,2013-04-27 18:37:00,
2013-04-27 14:38:00,58.6,30.4,17.72,SE,124,5.4,5.4,34,0.00,,CLR,0.00,VWS V14.01,2013-04-27 18:38:00,
2013-04-27 14:39:00,58.5,30.2,17.72,SE,129,0.0,2.7,34,0.00,,FEW085,0.00,VWS V14.01,2013-04-27 18:39:00,
2013-04-27 14:40:00,58.6,30.4,17.72,ESE,122,5.4,5.4,34,0.00,,FEW085,0.00,VWS V14.01,2013-04-27 18:40:00,
2013-04-27 14:41:00,58.6,31.1,17.72,SE,135,4.5,4.5,35,0.00,,FEW085,0.00,VWS V14.01,2013-04-27 18:41:00,
2013-04-27 14:42:00,58.8,31.2,17.72,SSE,164,6.3,6.3,35,0.00,,FEW085,0.00,VWS V14.01,2013-04-27 18:42:00,
2013-04-27 14:43:00,58.8,31.2,17.72,SSE,153,5.4,5.4,35,0.00,,CLR,0.00,VWS V14.01,2013-04-27 18:43:00,
2013-04-27 14:44:00,59.0,30.7,17.72,East,90,5.4,5.4,34,0.00,,FEW085,0.00,VWS V14.01,2013-04-27 18:44:00,
2013-04-27 14:45:00,59.2,30.9,17.72,SSE,155,7.2,7.2,34,0.00,,FEW085,0.00,VWS V14.01,2013-04-27 18:45:00,
2013-04-27 14:46:00,59.4,31.0,17.72,South,178,6.3,8.3,34,0.00,,FEW085,0.00,VWS V14.01,2013-04-27 18:46:00,
2013-04-27 14:47:00,59.4,31.0,17.72,SSW,195,8.1,8.1,34,0.00,,FEW085,0.00,VWS V14.01,2013-04-27 18:47:00,
2013-04-27 14:48:00,59.5,31.2,17.72,East,85,6.3,6.3,34,0.00,,CLR,0.00,VWS V14.01,2013-04-27 18:48:00,
2013-04-27 14:49:00,59.7,31.3,17.72,South,186,7.2,7.2,34,0.00,,FEW085,0.00,VWS V14.01,2013-04-27 18:49:00,
2013-04-27 14:50:00,59.9,31.5,17.72,SW,232,7.2,7.2,34,0.00,,FEW085,0.00,VWS V14.01,2013-04-27 18:50:00,
2013-04-27 14:51:00,59.9,30.8,17.72,WSW,240,6.3,6.3,33,0.00,,FEW085,0.00,VWS V14.01,2013-04-27 18:51:00,
2013-04-27 14:52:00,59.7,30.6,17.72,South,190,6.3,6.3,33,0.00,,FEW085,0.00,VWS V14.01,2013-04-27 18:52:00,
2013-04-27 14:53:00,59.7,30.6,17.72,SW,230,10.7,10.7,33,0.00,,CLR,0.00,VWS V14.01,2013-04-27 18:53:00,
2013-04-27 14:54:00,59.4,30.3,17.72,SW,224,7.2,7.2,33,0.00,,FEW085,0.00,VWS V14.01,2013-04-27 18:54:00,
2013-04-27 14:55:00,59.2,30.1,17.72,SSW,203,10.7,10.7,33,0.00,,FEW085,0.00,VWS V14.01,2013-04-27 18:55:00,
2013-04-27 14:56:00,58.6,30.4,17.72,SSW,211,5.4,5.4,34,0.00,,FEW085,0.00,VWS V14.01,2013-04-27 18:56:00,
2013-04-27 14:57:00,58.1,29.2,17.72,South,184,7.2,7.2,33,0.00,,FEW085,0.00,VWS V14.01,2013-04-27 18:57:00,
2013-04-27 14:58:00,57.9,29.7,17.72,SSE,148,7.2,7.2,34,0.00,,CLR,0.00,VWS V14.01,2013-04-27 18:58:00,
2013-04-27 14:59:00,57.6,29.4,17.72,SW,214,7.2,7.2,34,0.00,,FEW085,0.00,VWS V14.01,2013-04-27 18:59:00,
2013-04-27 15:00:00,57.4,29.3,17.72,SSW,212,7.2,7.2,34,0.00,,FEW085,0.00,VWS V14.01,2013-04-27 19:00:00,
2013-04-27 15:01:00,57.2,29.1,17.72,SW,226,8.1,8.1,34,0.00,,FEW085,0.00,VWS V14.01,2013-04-27 19:01:00,
2013-04-27 15:02:00,56.8,29.5,17.72,SW,228,5.4,5.4,35,0.00,,FEW085,0.00,VWS V14.01,2013-04-27 19:02:00,
2013-04-27 15:03:00,56.7,28.6,17.72,WSW,251,7.2,7.2,34,0.00,,FEW085,0.00,VWS V14.01,2013-04-27 19:03:00,
2013-04-27 15:04:00,56.5,29.2,17.72,WNW,293,5.4,5.4,35,0.00,,FEW085,0.00,VWS V14.01,2013-04-27 19:04:00,
2013-04-27 15:05:00,56.7,29.3,17.72,South,185,10.7,10.7,35,0.00,,FEW085,0.00,VWS V14.01,2013-04-27 19:05:00,
2013-04-27 15:06:00,56.5,29.2,17.72,WSW,238,11.6,11.6,35,0.00,,FEW085,0.00,VWS V14.01,2013-04-27 19:06:00,
2013-04-27 15:07:00,56.5,29.2,17.72,SSW,209,8.9,8.9,35,0.00,,FEW085,0.00,VWS V14.01,2013-04-27 19:07:00,
2013-04-27 15:08:00,56.5,29.2,17.72,WSW,248,10.7,10.7,35,0.00,,FEW085,0.00,VWS V14.01,2013-04-27 19:08:00,
2013-04-27 15:09:00,56.5,29.2,17.72,SW,216,9.8,9.8,35,0.00,,FEW085,0.00,VWS V14.01,2013-04-27 19:09:00,
2013-04-27 15:10:00,56.7,29.3,17.72,SE,143,0.0,4.9,35,0.00,,FEW085,0.00,VWS V14.01,2013-04-27 19:10:00,
2013-04-27 15:11:00,56.7,29.3,17.72,SSE,164,5.4,5.4,35,0.00,,FEW085,0.00,VWS V14.01,2013-04-27 19:11:00,
2013-04-27 15:12:00,56.7,29.3,17.72,SW,225,5.4,5.4,35,0.00,,FEW085,0.00,VWS V14.01,2013-04-27 19:12:00,
2013-04-27 15:13:00,57.0,29.7,17.72,SSW,200,0.0,0.0,35,0.00,,FEW085,0.00,VWS V14.01,2013-04-27 19:13:00,
2013-04-27 15:14:00,57.2,29.8,17.72,South,180,4.5,4.5,35,0.00,,FEW085,0.00,VWS V14.01,2013-04-27 19:14:00,
2013-04-27 15:15:00,57.4,30.0,17.72,SSW,207,10.7,10.7,35,0.00,,FEW085,0.00,VWS V14.01,2013-04-27 19:15:00,
2013-04-27 15:16:00,57.6,30.1,17.72,SSW,209,8.1,8.1,35,0.00,,FEW085,0.00,VWS V14.01,2013-04-27 19:16:00,
2013-04-27 15:17:00,57.6,29.4,17.72,WSW,252,6.3,6.3,34,0.00,,FEW085,0.00,VWS V14.01,2013-04-27 19:17:00,
2013-04-27 15:18:00,57.7,29.6,17.72,SW,217,7.2,7.2,34,0.00,,FEW085,0.00,VWS V14.01,2013-04-27 19:18:00,
2013-04-27 15:19:00,57.7,29.6,17.72,SSW,212,6.3,6.3,34,0.00,,FEW085,0.00,VWS V14.01,2013-04-27 19:19:00,
2013-04-27 15:20:00,57.7,29.6,17.72,WSW,248,7.2,7.2,34,0.00,,FEW085,0.00,VWS V14.01,2013-04-27 19:20:00,
2013-04-27 15:21:00,57.6,29.4,17.72,SE,138,4.5,4.5,34,0.00,,FEW085,0.00,VWS V14.01,2013-04-27 19:21:00,
2013-04-27 15:22:00,57.6,29.4,17.72,SSW,194,5.4,5.4,34,0.00,,FEW085,0.00,VWS V14.01,2013-04-27 19:22:00,
2013-04-27 15:23:00,57.6,29.4,17.72,South,170,0.0,2.2,34,0.00,,FEW085,0.00,VWS V14.01,2013-04-27 19:23:00,
2013-04-27 15:24:00,57.6,29.4,17.72,SSE,166,8.1,8.1,34,0.00,,FEW085,0.00,VWS V14.01,2013-04-27 19:24:00,
2013-04-27 15:25:00,57.6,29.4,17.72,ESE,113,7.2,7.2,34,0.00,,FEW085,0.00,VWS V14.01,2013-04-27 19:25:00,
2013-04-27 15:26:00,57.6,29.4,17.72,SSW,192,10.7,10.7,34,0.00,,FEW085,0.00,VWS V14.01,2013-04-27 19:26:00,
2013-04-27 15:27:00,57.6,30.1,17.72,South,185,5.4,5.4,35,0.00,,FEW085,0.00,VWS V14.01,2013-04-27 19:27:00,
2013-04-27 15:28:00,57.6,30.1,17.72,WSW,249,5.4,5.4,35,0.00,,FEW085,0.00,VWS V14.01,2013-04-27 19:28:00,
2013-04-27 15:29:00,57.6,30.1,17.72,SSE,159,6.3,6.3,35,0.00,,FEW085,0.00,VWS V14.01,2013-04-27 19:29:00,
2013-04-27 15:30:00,57.6,30.1,17.72,SSE,157,5.4,5.4,35,0.00,,FEW085,0.00,VWS V14.01,2013-04-27 19:30:00,
2013-04-27 15:31:00,57.6,30.1,17.72,ESE,117,6.3,6.3,35,0.00,,FEW085,0.00,VWS V14.01,2013-04-27 19:31:00,
2013-04-27 15:32:00,57.6,30.1,17.72,SE,140,5.4,5.4,35,0.00,,FEW085,0.00,VWS V14.01,2013-04-27 19:32:00,
2013-04-27 15:33:00,57.6,30.1,17.72,SSE,152,5.4,5.4,35,0.00,,FEW085,0.00,VWS V14.01,2013-04-27 19:33:00,
2013-04-27 15:34:00,57.6,29.4,17.72,SE,141,0.0,2.7,34,0.00,,FEW085,0.00,VWS V14.01,2013-04-27 19:34:00,
2013-04-27 15:35:00,57.6,29.4,17.72,SSE,150,0.0,2.2,34,0.00,,FEW085,0.00,VWS V14.01,2013-04-27 19:35:00,
2013-04-27 15:36:00,57.6,29.4,17.72,West,268,0.0,3.6,34,0.00,,FEW085,0.00,VWS V14.01,2013-04-27 19:36:00,
2013-04-27 15:37:00,57.4,30.0,17.72,SSE,157,6.3,6.3,35,0.00,,FEW085,0.00,VWS V14.01,2013-04-27 19:37:00,
2013-04-27 15:38:00,57.4,30.0,17.72,SSE,148,6.3,6.3,35,0.00,,FEW085,0.00,VWS V14.01,2013-04-27 19:38:00,
2013-04-27 15:39:00,57.4,30.0,17.72,East,89,5.4,5.4,35,0.00,,FEW085,0.00,VWS V14.01,2013-04-27 19:39:00,
2013-04-27 15:40:00,57.4,30.0,17.72,SE,135,0.0,5.4,35,0.00,,FEW085,0.00,VWS V14.01,2013-04-27 19:40:00,
2013-04-27 15:41:00,57.4,30.0,17.72,ESE,123,0.0,3.6,35,0.00,,FEW085,0.00,VWS V14.01,2013-04-27 19:41:00,
2013-04-27 15:42:00,57.4,30.0,17.72,SW,216,7.2,7.2,35,0.00,,FEW085,0.00,VWS V14.01,2013-04-27 19:42:00,
2013-04-27 15:43:00,57.4,30.0,17.72,SSW,198,6.3,6.3,35,0.00,,FEW085,0.00,VWS V14.01,2013-04-27 19:43:00,
2013-04-27 15:44:00,57.2,29.8,17.72,SW,219,7.2,7.2,35,0.00,,FEW085,0.00,VWS V14.01,2013-04-27 19:44:00,
2013-04-27 15:45:00,57.2,29.8,17.72,South,170,11.6,11.6,35,0.00,,FEW085,0.00,VWS V14.01,2013-04-27 19:45:00,
2013-04-27 15:46:00,57.2,29.8,17.72,East,92,6.3,6.3,35,0.00,,FEW085,0.00,VWS V14.01,2013-04-27 19:46:00,
2013-04-27 15:47:00,57.2,29.8,17.72,WSW,242,8.1,8.1,35,0.00,,FEW085,0.00,VWS V14.01,2013-04-27 19:47:00,
2013-04-27 15:48:00,57.2,29.8,17.72,South,187,4.5,4.5,35,0.00,,FEW085,0.00,VWS V14.01,2013-04-27 19:48:00,
2013-04-27 15:49:00,57.0,29.7,17.72,SSW,200,4.5,4.5,35,0.00,,FEW085,0.00,VWS V14.01,2013-04-27 19:49:00,
2013-04-27 15:50:00,57.0,29.7,17.72,SSW,194,7.2,7.2,35,0.00,,FEW085,0.00,VWS V14.01,2013-04-27 19:50:00,
2013-04-27 15:51:00,57.0,29.7,17.72,South,183,0.0,4.9,35,0.00,,FEW085,0.00,VWS V14.01,2013-04-27 19:51:00,
2013-04-27 15:52:00,56.8,29.5,17.72,ESE,122,0.0,0.0,35,0.00,,FEW085,0.00,VWS V14.01,2013-04-27 19:52:00,
2013-04-27 15:53:00,56.8,29.5,17.72,South,170,0.0,0.0,35,0.00,,FEW085,0.00,VWS V14.01,2013-04-27 19:53:00,
2013-04-27 15:54:00,56.8,29.5,17.72,SSE,166,9.8,9.8,35,0.00,,FEW085,0.00,VWS V14.01,2013-04-27 19:54:00,
2013-04-27 15:55:00,56.8,29.5,17.72,South,173,5.4,5.4,35,0.00,,FEW085,0.00,VWS V14.01,2013-04-27 19:55:00,
2013-04-27 15:56:00,56.8,29.5,17.72,SSW,194,6.3,6.3,35,0.00,,FEW085,0.00,VWS V14.01,2013-04-27 19:56:00,
2013-04-27 15:57:00,56.8,29.5,17.72,ESE,117,12.5,12.5,35,0.00,,FEW085,0.00,VWS V14.01,2013-04-27 19:57:00,
2013-04-27 15:58:00,56.8,29.5,17.72,SSE,157,5.4,5.4,35,0.00,,FEW085,0.00,VWS V14.01,2013-04-27 19:58:00,
2013-04-27 15:59:00,56.8,29.5,17.72,SE,135,7.2,7.2,35,0.00,,FEW085,0.00,VWS V14.01,2013-04-27 19:59:00,
2013-04-27 16:00:00,56.8,29.5,17.72,South,178,0.0,4.0,35,0.00,,FEW085,0.00,VWS V14.01,2013-04-27 20:00:00,
2013-04-27 16:01:00,56.8,29.5,17.72,WSW,247,8.1,8.1,35,0.00,,FEW085,0.00,VWS V14.01,2013-04-27 20:01:00,
2013-04-27 16:02:00,56.8,29.5,17.72,NW,323,11.6,11.6,35,0.00,,FEW085,0.00,VWS V14.01,2013-04-27 20:02:00,
2013-04-27 16:03:00,57.0,29.7,17.72,South,187,8.1,8.1,35,0.00,,FEW085,0.00,VWS V14.01,2013-04-27 20:03:00,
2013-04-27 16:04:00,57.0,29.7,17.72,SSE,164,0.0,5.4,35,0.00,,FEW085,0.00,VWS V14.01,2013-04-27 20:04:00,
2013-04-27 16:05:00,57.0,29.7,17.72,SSW,196,6.3,6.3,35,0.00,,FEW085,0.00,VWS V14.01,2013-04-27 20:05:00,
2013-04-27 16:17:00,56.7,29.3,17.72,SSW,194,0.0,0.0,35,0.00,,FEW085,0.00,VWS V14.01,2013-04-27 20:17:00,
2013-04-27 16:22:00,56.7,29.3,17.72,South,174,0.0,0.0,35,0.00,,FEW085,0.00,VWS V14.01,2013-04-27 20:22:00,
2013-04-27 16:27:00,57.2,29.8,17.72,SSW,204,9.8,9.8,35,0.00,,FEW085,0.00,VWS V14.01,2013-04-27 20:27:00,
2013-04-27 16:32:00,57.0,29.7,17.72,South,169,8.1,8.1,35,0.00,,FEW085,0.00,VWS V14.01,2013-04-27 20:32:00,
2013-04-27 16:37:00,56.5,28.5,17.72,SW,234,9.8,9.8,34,0.00,,FEW085,0.00,VWS V14.01,2013-04-27 20:37:00,
2013-04-27 16:42:00,55.9,28.7,17.72,ESE,115,7.2,7.2,35,0.00,,FEW085,0.00,VWS V14.01,2013-04-27 20:42:00,
2013-04-27 16:47:00,55.6,28.4,17.72,SSE,149,0.0,0.0,35,0.00,,FEW085,0.00,VWS V14.01,2013-04-27 20:47:00,
2013-04-27 16:52:00,55.6,28.4,17.72,SSW,204,0.0,0.0,35,0.00,,FEW085,0.00,VWS V14.01,2013-04-27 20:52:00,
2013-04-27 16:57:00,55.8,28.5,17.72,SSW,199,5.4,5.4,35,0.00,,FEW085,0.00,VWS V14.01,2013-04-27 20:57:00,
2013-04-27 17:02:00,55.9,28.7,17.72,SSW,213,7.2,7.2,35,0.00,,CLR,0.00,VWS V14.01,2013-04-27 21:02:00,
2013-04-27 17:07:00,55.6,28.4,17.72,SSW,193,4.5,4.5,35,0.00,,CLR,0.00,VWS V14.01,2013-04-27 21:07:00,
2013-04-27 17:12:00,55.2,28.8,17.72,SSW,204,0.0,0.0,36,0.00,,CLR,0.00,VWS V14.01,2013-04-27 21:12:00,
2013-04-27 17:17:00,55.0,28.6,17.72,West,268,5.4,5.4,36,0.00,,CLR,0.00,VWS V14.01,2013-04-27 21:17:00,
2013-04-27 17:22:00,55.0,28.6,17.72,WSW,244,0.0,3.6,36,0.00,,CLR,0.00,VWS V14.01,2013-04-27 21:22:00,
2013-04-27 17:27:00,54.9,28.4,17.72,West,275,8.1,8.1,36,0.00,,CLR,0.00,VWS V14.01,2013-04-27 21:27:00,
2013-04-27 17:32:00,55.0,28.6,17.72,SW,236,6.3,6.3,36,0.00,,CLR,0.00,VWS V14.01,2013-04-27 21:32:00,
2013-04-27 17:37:00,55.0,28.6,17.72,SW,218,0.0,0.0,36,0.00,,CLR,0.00,VWS V14.01,2013-04-27 21:37:00,
2013-04-27 17:42:00,54.7,28.3,17.72,South,178,5.4,5.4,36,0.00,,CLR,0.00,VWS V14.01,2013-04-27 21:42:00,
2013-04-27 17:47:00,54.3,28.0,17.72,WNW,293,7.2,7.2,36,0.00,,CLR,0.00,VWS V14.01,2013-04-27 21:47:00,
2013-04-27 17:52:00,54.1,27.1,17.72,WSW,248,9.8,9.8,35,0.00,,CLR,0.00,VWS V14.01,2013-04-27 21:52:00,
2013-04-27 17:57:00,54.1,27.1,17.72,WSW,246,9.8,9.8,35,0.00,,CLR,0.00,VWS V14.01,2013-04-27 21:57:00,
2013-04-27 18:02:00,54.1,27.8,17.72,WSW,238,6.3,6.3,36,0.00,,CLR,0.00,VWS V14.01,2013-04-27 22:02:00,
2013-04-27 18:07:00,54.1,27.8,17.72,SW,233,5.4,5.4,36,0.00,,CLR,0.00,VWS V14.01,2013-04-27 22:07:00,
2013-04-27 18:12:00,54.1,27.8,17.72,SSW,201,5.4,5.4,36,0.00,,CLR,0.00,VWS V14.01,2013-04-27 22:12:00,
2013-04-27 18:17:00,54.0,27.0,17.72,South,187,4.5,4.5,35,0.00,,CLR,0.00,VWS V14.01,2013-04-27 22:17:00,
2013-04-27 18:22:00,53.6,27.3,17.72,SSE,168,0.0,0.0,36,0.00,,CLR,0.00,VWS V14.01,2013-04-27 22:22:00,
2013-04-27 18:27:00,53.4,27.1,17.72,South,183,0.0,3.1,36,0.00,,CLR,0.00,VWS V14.01,2013-04-27 22:27:00,
2013-04-27 18:32:00,53.4,27.1,17.72,SW,220,0.0,0.0,36,0.00,,CLR,0.00,VWS V14.01,2013-04-27 22:32:00,
2013-04-27 18:37:00,53.2,27.7,17.72,SSW,210,0.0,0.0,37,0.00,,CLR,0.00,VWS V14.01,2013-04-27 22:37:00,
2013-04-27 18:42:00,53.1,27.5,17.72,South,185,0.0,0.0,37,0.00,,CLR,0.00,VWS V14.01,2013-04-27 22:42:00,
2013-04-27 18:47:00,52.9,27.3,17.72,South,173,0.0,0.0,37,0.00,,CLR,0.00,VWS V14.01,2013-04-27 22:47:00,
2013-04-27 18:52:00,52.7,27.2,17.72,SSW,205,0.0,0.0,37,0.00,,CLR,0.00,VWS V14.01,2013-04-27 22:52:00,
2013-04-27 18:57:00,52.5,27.7,17.72,SW,222,5.4,5.4,38,0.00,,CLR,0.00,VWS V14.01,2013-04-27 22:57:00,
2013-04-27 19:02:00,52.3,27.5,17.72,SW,214,0.0,0.0,38,0.00,,CLR,0.00,VWS V14.01,2013-04-27 23:02:00,
2013-04-27 19:07:00,52.0,27.8,17.72,WSW,248,0.0,2.2,39,0.00,,CLR,0.00,VWS V14.01,2013-04-27 23:07:00,
2013-04-27 19:12:00,51.8,28.3,17.72,WSW,242,5.4,5.4,40,0.00,,CLR,0.00,VWS V14.01,2013-04-27 23:12:00,
2013-04-27 19:17:00,51.6,29.3,17.72,WSW,243,0.0,0.0,42,0.00,,CLR,0.00,VWS V14.01,2013-04-27 23:17:00,
2013-04-27 19:22:00,51.3,29.0,17.72,SW,220,0.0,0.0,42,0.00,,CLR,0.00,VWS V14.01,2013-04-27 23:22:00,
2013-04-27 19:27:00,50.9,28.6,17.72,WSW,256,0.0,0.0,42,0.00,,CLR,0.00,VWS V14.01,2013-04-27 23:27:00,
2013-04-27 19:32:00,50.5,30.5,17.72,WSW,248,4.5,4.9,46,0.00,,CLR,0.00,VWS V14.01,2013-04-27 23:32:00,
2013-04-27 19:37:00,50.2,30.2,17.72,West,265,4.5,4.5,46,0.00,,CLR,0.00,VWS V14.01,2013-04-27 23:37:00,
2013-04-27 19:42:00,49.8,30.4,17.72,WSW,249,7.2,7.2,47,0.00,,CLR,0.00,VWS V14.01,2013-04-27 23:42:00,
2013-04-27 19:47:00,49.5,30.6,17.72,WSW,245,0.0,3.6,48,0.00,,CLR,0.00,VWS V14.01,2013-04-27 23:47:00,
2013-04-27 19:52:00,49.1,30.3,17.72,SW,231,0.0,2.7,48,0.00,,CLR,0.00,VWS V14.01,2013-04-27 23:52:00,
2013-04-27 19:57:00,48.7,29.9,17.72,SSW,203,0.0,0.0,48,0.00,,CLR,0.00,VWS V14.01,2013-04-27 23:57:00,
2013-04-27 20:02:00,48.4,29.6,17.72,SW,234,6.3,6.3,48,0.00,,CLR,0.00,VWS V14.01,2013-04-28 00:02:00,
2013-04-27 20:07:00,48.2,30.0,17.72,WSW,247,0.0,0.0,49,0.00,,CLR,0.00,VWS V14.01,2013-04-28 00:07:00,
2013-04-27 20:12:00,47.8,29.6,17.72,WSW,248,0.0,0.0,49,0.00,,CLR,0.00,VWS V14.01,2013-04-28 00:12:00,
2013-04-27 20:17:00,47.7,29.5,17.72,WSW,253,0.0,0.0,49,0.00,,CLR,0.00,VWS V14.01,2013-04-28 00:17:00,
2013-04-27 20:22:00,47.3,29.6,17.72,WSW,258,0.0,0.0,50,0.00,,CLR,0.00,VWS V14.01,2013-04-28 00:22:00,
2013-04-27 20:27:00,46.9,30.2,17.72,WSW,246,6.3,6.3,52,0.00,,CLR,0.00,VWS V14.01,2013-04-28 00:27:00,
2013-04-27 20:32:00,46.8,30.5,17.72,WSW,245,0.0,3.1,53,0.00,,CLR,0.00,VWS V14.01,2013-04-28 00:32:00,
2013-04-27 20:37:00,46.8,31.0,17.72,SW,236,0.0,0.0,54,0.00,,CLR,0.00,VWS V14.01,2013-04-28 00:37:00,
2013-04-27 20:42:00,46.8,31.5,17.72,West,265,5.4,5.4,55,0.00,,CLR,0.00,VWS V14.01,2013-04-28 00:42:00,
2013-04-27 20:47:00,46.6,32.2,17.72,WSW,250,5.4,5.4,57,0.00,,CLR,0.00,VWS V14.01,2013-04-28 00:47:00,
2013-04-27 20:52:00,46.2,32.3,17.72,WSW,247,0.0,0.0,58,0.00,,CLR,0.00,VWS V14.01,2013-04-28 00:52:00,
2013-04-27 20:57:00,46.0,31.7,17.72,WSW,247,0.0,0.0,57,0.00,,CLR,0.00,VWS V14.01,2013-04-28 00:57:00,
2013-04-27 21:02:00,45.5,31.2,17.72,WSW,247,0.0,0.0,57,0.00,,CLR,0.00,VWS V14.01,2013-04-28 01:02:00,
2013-04-27 21:07:00,45.1,30.8,17.72,WSW,247,0.0,0.0,57,0.00,,CLR,0.00,VWS V14.01,2013-04-28 01:07:00,
2013-04-27 21:12:00,44.6,29.9,17.72,WSW,247,0.0,0.0,56,0.00,,CLR,0.00,VWS V14.01,2013-04-28 01:12:00,
2013-04-27 21:17:00,44.2,30.0,17.72,WSW,247,0.0,0.0,57,0.00,,CLR,0.00,VWS V14.01,2013-04-28 01:17:00,
2013-04-27 21:22:00,44.1,30.7,17.72,WSW,247,0.0,0.0,59,0.00,,CLR,0.00,VWS V14.01,2013-04-28 01:22:00,
2013-04-27 21:27:00,44.1,33.4,17.72,WSW,247,5.4,5.4,66,0.00,,CLR,0.00,VWS V14.01,2013-04-28 01:27:00,
2013-04-27 21:32:00,44.1,34.2,17.72,WSW,247,0.0,0.0,68,0.00,,CLR,0.00,VWS V14.01,2013-04-28 01:32:00,
2013-04-27 21:37:00,44.2,34.4,17.72,WSW,246,0.0,0.0,68,0.00,,CLR,0.00,VWS V14.01,2013-04-28 01:37:00,
2013-04-27 21:42:00,43.9,33.7,17.72,WSW,246,0.0,0.0,67,0.00,,CLR,0.00,VWS V14.01,2013-04-28 01:42:00,
2013-04-27 21:47:00,43.3,32.8,17.72,WSW,246,0.0,0.0,66,0.00,,CLR,0.00,VWS V14.01,2013-04-28 01:47:00,
2013-04-27 21:52:00,42.8,32.2,17.72,WSW,246,0.0,0.0,66,0.00,,CLR,0.00,VWS V14.01,2013-04-28 01:52:00,
2013-04-27 21:57:00,42.4,31.9,17.72,WSW,246,0.0,0.0,66,0.00,,CLR,0.00,VWS V14.01,2013-04-28 01:57:00,
2013-04-27 22:02:00,42.1,31.6,17.72,WSW,246,0.0,0.0,66,0.00,,CLR,0.00,VWS V14.01,2013-04-28 02:02:00,
2013-04-27 22:07:00,41.5,31.0,17.72,WSW,246,0.0,0.0,66,0.00,,CLR,0.00,VWS V14.01,2013-04-28 02:07:00,
2013-04-27 22:12:00,41.4,30.9,17.72,WSW,246,0.0,0.0,66,0.00,,CLR,0.00,VWS V14.01,2013-04-28 02:12:00,
2013-04-27 22:17:00,41.2,30.7,17.72,WSW,246,0.0,0.0,66,0.00,,CLR,0.00,VWS V14.01,2013-04-28 02:17:00,
2013-04-27 22:22:00,41.0,31.3,17.72,WSW,246,0.0,0.0,68,0.00,,CLR,0.00,VWS V14.01,2013-04-28 02:22:00,
2013-04-27 22:27:00,41.0,31.6,17.72,WSW,246,0.0,0.0,69,0.00,,CLR,0.00,VWS V14.01,2013-04-28 02:27:00,
2013-04-27 22:32:00,40.8,31.8,17.72,WSW,246,0.0,0.0,70,0.00,,CLR,0.00,VWS V14.01,2013-04-28 02:32:00,
2013-04-27 22:37:00,40.6,31.6,17.72,WSW,246,0.0,0.0,70,0.00,,CLR,0.00,VWS V14.01,2013-04-28 02:37:00,
2013-04-27 22:42:00,40.6,31.6,17.72,WSW,246,0.0,0.0,70,0.00,,CLR,0.00,VWS V14.01,2013-04-28 02:42:00,
2013-04-27 22:47:00,40.5,31.8,17.72,WSW,246,0.0,0.0,71,0.00,,CLR,0.00,VWS V14.01,2013-04-28 02:47:00,
2013-04-27 22:52:00,40.3,31.6,17.72,WSW,246,0.0,0.0,71,0.00,,CLR,0.00,VWS V14.01,2013-04-28 02:52:00,
2013-04-27 22:57:00,40.1,31.8,17.72,WSW,246,0.0,0.0,72,0.00,,CLR,0.00,VWS V14.01,2013-04-28 02:57:00,
2013-04-27 23:02:00,39.9,31.6,17.72,WSW,246,0.0,0.0,72,0.00,,CLR,0.00,VWS V14.01,2013-04-28 03:02:00,
2013-04-27 23:07:00,39.7,31.5,17.72,WSW,246,0.0,0.0,72,0.00,,CLR,0.00,VWS V14.01,2013-04-28 03:07:00,
2013-04-27 23:12:00,39.7,31.8,17.72,WSW,246,0.0,0.0,73,0.00,,CLR,0.00,VWS V14.01,2013-04-28 03:12:00,
2013-04-27 23:17:00,39.6,31.6,17.72,WSW,246,0.0,0.0,73,0.00,,CLR,0.00,VWS V14.01,2013-04-28 03:17:00,
2013-04-27 23:22:00,39.4,31.5,17.72,WSW,246,0.0,0.0,73,0.00,,CLR,0.00,VWS V14.01,2013-04-28 03:22:00,
2013-04-27 23:27:00,39.4,31.8,17.72,WSW,246,0.0,0.0,74,0.00,,CLR,0.00,VWS V14.01,2013-04-28 03:27:00,
2013-04-27 23:32:00,39.2,31.6,17.72,WSW,246,0.0,0.0,74,0.00,,CLR,0.00,VWS V14.01,2013-04-28 03:32:00,
2013-04-27 23:37:00,39.0,31.8,17.72,WSW,246,0.0,0.0,75,0.00,,CLR,0.00,VWS V14.01,2013-04-28 03:37:00,
2013-04-27 23:42:00,39.0,31.8,17.72,WSW,246,0.0,0.0,75,0.00,,CLR,0.00,VWS V14.01,2013-04-28 03:42:00,
2013-04-27 23:47:00,39.0,31.8,17.72,WSW,246,0.0,0.0,75,0.00,,CLR,0.00,VWS V14.01,2013-04-28 03:47:00,
2013-04-27 23:52:00,39.0,31.8,17.72,WSW,246,0.0,0.0,75,0.00,,CLR,0.00,VWS V14.01,2013-04-28 03:52:00,
2013-04-27 23:57:00,39.2,32.0,17.72,WSW,246,0.0,0.0,75,0.00,,CLR,0.00,VWS V14.01,2013-04-28 03:57:00,